ECMWFFLT1_sfc_thetae_015.txt.gz
Theta_e
278 277 278 277 277 278 277 277 277 277 276 276 276 276 275 275 275 274 274 274 274 274 273 273 273 273 272 272 272 272 271 271 272 272 272 272 273 273 273 272 272 272 272 272 272 272 272 272 272 273 273 273 272 273 275 278 280 280 280 282 284 285
277 277 277 276 276 276 276 276 276 276 275 275 275 275 274 274 274 273 273 273 273 273 272 272 272 272 272 271 271 271 271 271 271 271 272 272 273 272 272 272 272 272 272 272 272 272 272 272 272 272 272 273 273 274 274 275 278 279 280 282 283 284
276 276 275 275 275 276 277 276 275 275 275 274 274 274 274 273 273 273 272 272 272 272 271 271 271 270 271 270 270 270 270 271 272 271 272 272 271 272 271 271 272 272 272 271 272 271 271 271 272 272 272 272 272 272 273 273 274 276 278 280 281 283
276 275 275 275 275 275 275 275 275 274 274 274 273 273 273 272 272 272 272 271 271 270 270 270 270 270 270 269 269 269 270 270 271 271 271 271 271 272 271 271 272 272 272 271 271 271 271 271 271 271 271 271 271 271 272 272 273 274 277 279 279 281
276 276 275 275 275 275 274 274 274 274 273 273 273 272 272 272 271 271 271 270 270 270 269 269 269 269 269 269 269 269 270 270 270 271 271 271 271 271 272 272 271 271 271 271 271 271 271 271 271 271 271 271 271 270 271 272 274 275 277 278 279 280
275 275 275 275 275 274 275 274 274 274 273 272 272 271 271 271 271 270 270 269 269 269 268 268 268 268 268 268 269 269 269 270 270 271 270 271 271 271 271 271 271 270 270 269 269 270 270 270 271 271 272 271 271 271 272 273 274 275 277 278 278 279
274 275 275 275 275 274 274 274 273 273 272 272 271 271 271 270 270 269 269 268 268 268 267 267 268 268 268 268 268 268 269 270 270 270 270 270 270 270 269 269 269 268 268 268 268 269 269 269 269 270 270 271 272 272 272 272 272 272 273 275 278 279
275 274 274 274 274 273 273 272 272 271 271 271 270 270 269 269 269 268 268 267 267 266 266 267 267 267 267 267 268 268 269 269 269 269 269 269 268 267 267 267 267 267 266 267 267 267 268 268 269 269 269 270 270 270 270 270 270 271 272 273 276 278
274 274 273 273 273 272 272 271 270 270 270 269 269 269 268 268 268 267 266 266 266 266 266 266 266 267 267 267 268 268 268 268 268 268 267 267 266 266 265 265 265 266 266 266 266 266 267 267 268 268 269 269 269 269 269 270 270 271 272 273 275 277
274 273 273 272 273 272 271 271 269 268 267 267 268 268 267 267 266 265 265 265 265 265 266 266 266 267 267 267 268 267 267 267 266 266 266 265 264 264 264 264 264 265 265 265 266 266 267 267 267 268 268 269 269 269 269 269 270 270 271 273 274 276
273 273 272 272 271 271 269 268 267 267 267 267 266 266 265 265 265 264 264 264 264 265 266 266 266 267 267 266 266 265 265 265 265 265 264 264 264 264 264 264 264 264 264 265 266 266 267 267 268 268 269 269 269 269 269 270 270 270 270 271 273 275
273 273 272 270 269 268 267 267 267 266 266 266 265 265 265 264 264 264 264 264 264 265 265 265 265 266 265 265 264 264 264 263 263 263 263 263 263 263 263 263 264 264 264 265 265 266 267 267 268 270 273 274 271 271 271 272 272 272 273 273 274 275
273 271 270 269 268 267 267 266 266 265 265 265 264 264 264 264 263 263 263 263 264 264 264 264 264 264 263 263 263 262 262 262 262 262 262 262 262 262 263 263 264 264 264 265 265 265 266 267 268 272 274 275 276 274 272 272 273 274 274 274 275 275
272 271 270 268 267 266 266 265 265 265 264 264 263 263 263 263 263 263 263 263 263 264 264 263 263 262 262 262 261 261 261 261 261 261 261 261 261 262 263 263 263 264 265 265 266 266 266 267 271 273 274 275 276 276 273 273 273 273 273 273 274 276
272 271 269 267 266 266 265 265 264 264 263 263 263 263 262 262 262 262 262 263 263 263 263 262 261 261 260 260 260 260 260 260 260 260 261 261 262 263 263 263 264 264 265 265 265 266 266 267 271 273 275 275 276 277 276 273 273 273 273 273 274 275
271 269 268 267 266 266 265 265 263 263 263 263 262 262 262 262 261 261 261 262 262 262 261 261 260 259 259 260 260 260 260 260 260 261 262 263 263 263 263 263 263 264 265 265 266 266 267 267 271 274 275 275 276 277 276 273 273 273 273 273 274 275
270 267 266 266 265 265 264 263 263 262 262 262 261 261 261 261 261 260 261 261 261 260 260 260 259 259 259 259 259 259 259 260 261 262 263 263 263 263 263 263 263 264 265 266 266 267 267 268 273 275 276 276 277 278 277 274 274 274 274 274 275 276
268 267 266 266 264 264 263 262 262 261 260 261 260 260 260 260 259 260 260 259 259 259 259 259 258 258 258 259 259 259 260 261 262 262 263 263 263 264 264 265 265 265 265 266 267 267 267 268 274 275 276 277 277 278 275 274 274 273 273 274 275 277
267 266 265 264 263 262 261 261 260 260 259 259 259 259 259 259 259 259 259 258 258 258 258 258 258 257 258 258 259 259 260 261 262 262 263 263 263 263 263 263 264 265 266 266 267 267 268 268 272 275 276 277 277 277 274 274 273 273 273 273 275 276
266 265 263 263 262 261 261 260 259 259 258 258 258 258 258 258 258 258 258 257 258 258 258 258 257 257 257 258 258 260 261 262 262 262 263 262 262 262 262 263 263 265 266 266 267 268 268 269 272 276 277 278 278 277 274 274 273 273 273 273 275 276
264 263 263 262 260 260 260 259 258 258 257 257 257 257 257 257 257 257 257 257 257 257 257 257 257 257 257 258 259 260 261 261 261 262 262 262 262 262 262 263 263 264 265 267 267 270 270 270 273 276 277 278 279 277 275 274 273 273 273 273 274 276
263 262 261 260 260 259 259 258 258 256 257 256 256 256 256 256 256 257 257 257 257 257 257 257 257 257 258 259 259 260 261 261 261 261 261 261 261 261 262 263 263 264 265 267 268 269 271 271 272 275 278 279 279 280 277 275 274 272 272 273 274 276
262 261 260 260 259 258 258 257 256 256 256 256 256 256 256 256 257 256 256 256 256 256 256 257 257 257 258 259 260 260 260 261 261 261 260 260 261 261 262 262 264 264 265 267 269 269 270 272 272 273 277 278 279 280 280 277 275 274 274 273 274 275
260 260 259 259 259 258 258 256 256 256 255 255 255 255 256 256 256 255 255 255 255 255 255 256 257 258 259 259 260 259 259 260 260 260 260 260 260 261 261 263 263 264 265 267 269 269 270 272 273 271 274 277 278 280 281 279 277 277 275 274 274 275
259 259 258 258 258 258 258 255 255 255 255 254 255 256 256 255 255 254 254 254 254 254 255 256 257 258 259 259 259 259 258 259 259 259 260 260 261 261 261 262 263 263 265 267 267 269 270 270 270 273 273 276 278 279 280 281 281 281 278 276 275 276
259 258 258 258 257 257 257 255 254 254 253 254 255 256 255 254 254 253 252 253 253 254 255 256 257 258 258 258 258 258 258 258 258 259 260 261 261 261 261 262 263 264 265 265 267 268 268 269 269 272 274 274 277 278 279 280 281 283 280 279 278 278
257 257 257 257 256 257 255 255 253 253 253 255 255 254 254 253 252 251 251 252 253 254 255 256 257 257 257 258 258 257 257 257 258 258 260 261 261 261 261 262 263 264 264 265 266 267 267 268 269 269 272 274 276 277 278 279 280 281 283 281 280 280
256 255 256 256 256 256 255 254 254 251 253 254 254 254 253 251 250 250 251 252 252 253 255 256 257 257 257 257 258 257 257 257 258 258 259 260 261 261 261 262 264 264 264 265 266 266 266 267 268 269 270 272 274 275 277 278 279 280 281 283 283 283
255 255 255 255 256 255 255 253 254 254 254 253 254 253 251 249 249 250 251 251 252 254 255 255 256 257 257 257 257 257 257 257 258 258 259 260 261 261 262 264 263 263 264 265 265 265 265 266 267 268 269 271 272 273 274 275 276 279 281 282 283 284
256 255 254 255 255 255 254 253 253 252 252 252 252 250 248 248 250 250 250 251 253 254 255 255 257 256 255 256 256 256 256 257 258 259 259 260 261 262 263 264 264 263 264 265 265 264 265 265 266 268 269 271 272 273 274 275 276 277 278 280 283 284
255 255 255 255 255 254 253 252 252 251 252 253 250 249 247 248 250 250 249 252 253 253 256 255 255 255 255 255 256 256 257 256 258 259 261 263 264 265 265 265 265 265 266 266 265 264 264 265 266 268 274 272 275 273 273 274 275 277 278 281 284 285
255 254 254 255 254 253 252 251 252 251 253 251 250 249 247 247 249 248 250 251 252 253 254 254 254 255 255 255 255 255 256 260 264 263 261 262 267 270 271 270 266 267 267 267 267 266 265 265 267 273 275 275 275 276 277 277 279 281 283 283 284 285
254 254 254 254 253 252 251 250 251 250 251 252 251 250 248 247 247 249 250 251 251 254 255 254 254 254 254 255 255 255 255 255 257 262 265 267 267 268 270 270 270 271 272 269 266 268 271 271 272 273 274 274 275 275 276 276 277 278 282 286 284 284
254 254 254 254 252 251 250 250 250 250 249 250 249 249 248 247 247 248 249 251 252 254 254 254 254 254 254 254 255 254 254 254 254 255 261 265 266 267 268 269 269 270 270 272 270 269 266 269 271 272 273 273 273 273 274 274 275 276 277 281 287 285
254 254 254 252 251 250 250 248 248 248 249 249 248 248 246 246 247 247 249 250 253 254 254 254 253 253 253 253 254 254 254 253 253 253 253 257 263 265 266 267 268 269 269 270 271 272 270 270 270 271 272 272 272 272 272 272 273 274 274 273 269 270
254 253 252 251 250 250 248 249 249 248 249 249 248 247 245 245 247 247 249 250 253 253 253 253 253 253 253 253 254 254 253 253 253 253 253 253 254 256 260 264 266 267 268 268 270 271 270 270 270 270 270 270 270 271 270 269 266 271 271 268 263 266
253 252 252 252 251 250 250 247 248 249 248 246 245 244 244 244 248 248 251 254 255 252 252 253 253 253 252 253 253 253 252 252 253 253 253 253 252 253 253 254 256 261 266 264 265 269 269 269 269 269 269 269 269 269 269 266 259 259 260 261 261 263
252 252 252 251 250 250 245 247 249 249 246 245 244 244 244 245 247 249 250 252 253 252 253 252 251 252 252 253 253 253 252 253 253 253 252 253 253 253 253 253 254 256 261 265 265 269 267 267 267 267 267 267 268 267 266 257 257 257 258 259 259 260

ECMWFFLT1_sfc_thetae_021.txt.gz
Theta_e
281 281 282 282 282 282 282 281 281 281 281 280 280 279 279 278 278 278 278 277 276 276 275 274 274 274 273 273 273 272 272 271 272 272 272 272 273 272 272 272 272 272 272 272 272 272 272 273 273 273 272 272 272 272 272 273 273 273 273 273 273 273
281 281 281 281 281 281 281 280 280 279 279 279 279 278 278 277 277 277 276 276 275 275 274 273 273 273 272 272 271 271 271 271 271 271 272 272 272 272 272 272 271 271 271 271 271 271 271 271 271 271 271 270 271 271 271 271 272 271 271 272 273 273
280 280 281 281 281 281 280 279 279 279 278 278 278 277 276 276 276 275 275 275 274 273 272 272 272 271 271 271 271 271 271 271 272 271 271 271 271 271 271 271 271 271 271 270 270 270 269 269 269 269 269 269 269 269 270 270 270 270 270 271 272 272
280 280 280 280 279 279 278 279 279 278 277 277 277 276 276 275 275 274 274 273 273 272 271 271 271 270 270 270 270 270 270 271 271 271 271 270 271 271 270 270 270 270 269 269 268 268 268 268 268 268 268 268 268 268 269 269 269 268 269 269 270 271
280 279 279 279 279 279 278 278 278 277 277 276 276 275 275 275 274 274 273 272 271 270 270 270 270 270 270 269 270 270 270 270 270 270 270 270 270 270 269 269 269 268 268 268 267 267 267 267 267 267 267 267 267 267 267 268 268 267 267 268 268 269
279 279 279 279 278 278 278 278 277 277 276 275 275 274 274 273 272 272 271 270 270 270 269 269 269 269 269 269 269 269 269 269 270 270 269 269 269 268 268 268 268 267 267 267 267 267 267 266 267 267 267 267 267 266 267 267 267 267 267 267 268 268
278 278 279 279 279 278 278 277 276 276 275 274 274 273 272 272 271 270 270 269 268 268 268 268 268 268 268 268 269 269 269 269 269 269 268 268 267 267 267 267 267 266 266 265 265 266 266 266 266 266 267 266 268 267 266 267 267 267 267 267 268 269
278 279 279 279 279 278 277 276 276 275 274 273 273 272 271 270 270 269 268 268 268 268 268 268 268 268 268 268 268 268 268 268 268 267 267 267 266 266 266 265 265 265 265 265 265 265 266 266 266 266 266 267 266 267 267 267 267 267 267 268 268 268
278 278 278 279 278 277 277 275 274 273 273 272 271 271 270 269 269 268 267 267 267 267 267 267 268 268 268 268 268 268 268 267 267 266 266 266 265 264 264 264 264 265 265 265 265 265 266 266 266 266 267 267 267 267 267 267 267 267 268 268 268 269
278 278 278 278 277 276 275 274 273 272 271 270 269 269 268 268 267 266 266 266 266 266 267 267 267 267 267 267 267 267 266 266 266 265 265 265 264 264 264 264 264 264 265 265 265 266 266 266 266 267 267 267 267 267 267 267 268 268 268 269 269 269
278 278 277 277 276 275 274 272 271 270 270 269 268 268 267 267 266 266 265 265 265 266 266 267 267 267 267 266 266 265 265 265 264 264 264 263 263 264 264 264 264 264 265 265 266 266 267 266 266 267 267 267 268 268 269 269 269 269 269 269 269 269
278 277 277 276 275 274 272 271 270 269 268 268 267 267 266 266 265 265 265 265 265 265 266 265 265 265 265 264 264 264 263 263 263 263 262 262 263 263 264 264 265 265 265 265 266 266 266 266 267 268 272 273 270 270 271 271 272 272 272 271 270 270
277 277 276 276 275 274 272 271 269 269 268 267 266 266 266 265 264 264 264 264 265 265 265 265 264 264 263 263 263 262 262 262 262 261 261 262 262 263 264 264 264 265 265 265 265 265 265 266 266 271 273 274 275 273 271 271 272 273 273 273 272 272
277 276 276 276 275 273 271 270 268 268 267 267 266 265 265 264 264 264 264 264 264 264 264 264 263 262 262 261 261 261 261 261 260 261 261 261 262 263 264 264 264 264 265 265 265 265 265 265 269 272 273 274 275 276 273 273 273 273 273 274 274 273
277 277 277 276 274 273 271 269 268 267 267 266 265 265 264 263 263 263 263 263 263 263 263 262 261 260 260 260 260 260 260 260 260 260 261 261 262 263 263 264 264 264 264 264 264 264 265 265 269 272 273 274 276 277 276 273 274 274 274 274 274 274
278 277 277 276 274 273 270 269 268 267 266 265 264 263 263 263 263 262 262 262 262 262 261 260 260 259 259 259 259 259 259 259 259 260 261 262 262 262 262 262 263 263 263 263 263 264 264 265 268 272 274 275 276 277 277 274 274 274 275 275 275 275
278 277 276 274 272 270 268 267 266 265 264 264 263 263 263 262 262 262 262 261 261 261 260 260 259 258 258 259 259 259 259 259 260 260 261 261 262 261 261 262 262 262 262 262 263 263 263 264 270 273 275 275 277 277 277 274 274 274 274 274 274 275
277 276 275 273 270 267 267 265 265 264 263 263 263 262 262 261 260 261 261 260 260 259 259 259 258 258 258 258 258 258 258 259 260 260 260 261 261 261 262 262 262 261 261 262 262 263 263 265 271 273 275 276 277 278 274 273 273 273 273 273 274 274
278 276 273 269 267 266 265 264 263 263 262 261 261 261 261 260 259 260 260 259 259 259 258 258 258 257 257 257 257 257 258 259 259 260 260 260 260 260 260 260 261 261 262 262 262 263 264 265 269 273 275 275 277 276 273 272 272 272 272 273 274 274
276 272 268 267 266 265 264 263 263 262 261 260 260 260 260 259 259 260 259 258 258 258 258 258 257 256 257 257 257 257 258 259 259 259 260 259 259 259 260 260 260 261 262 262 263 264 265 266 270 273 274 275 276 276 272 271 271 271 272 272 273 274
271 268 267 265 264 264 263 262 262 261 260 260 260 260 260 259 259 259 258 258 258 258 257 257 256 256 256 256 257 257 257 258 258 259 259 259 259 259 260 260 260 261 263 264 265 268 268 267 269 272 274 275 276 274 272 272 271 270 271 271 272 274
267 266 265 264 263 263 262 262 262 261 260 260 260 260 260 260 259 259 258 258 258 257 256 256 256 255 255 256 256 257 257 258 258 259 259 259 259 259 259 260 261 261 263 265 266 267 267 267 268 270 274 275 276 276 273 272 271 270 271 271 272 272
267 265 265 264 263 262 262 262 261 260 260 260 260 260 260 260 259 258 257 257 256 256 256 256 255 254 255 256 256 257 257 258 258 258 258 257 258 258 259 259 261 263 264 265 266 267 268 268 268 269 274 274 275 276 275 272 272 272 272 272 272 273
266 264 263 263 262 261 261 262 261 260 260 260 260 260 260 258 258 257 256 255 255 255 254 254 255 255 255 256 256 256 256 257 257 257 257 257 257 257 258 260 262 263 264 265 267 267 267 269 271 269 272 274 275 276 276 273 272 273 273 272 272 272
264 263 262 261 261 261 262 262 261 260 260 260 260 259 258 257 257 256 255 254 253 253 253 253 253 254 255 255 255 255 255 256 256 256 256 256 257 257 259 260 262 263 263 265 266 267 267 268 269 272 270 273 275 276 276 276 275 276 274 272 271 272
263 262 261 261 261 261 262 261 260 260 260 261 259 258 257 256 255 255 253 253 252 252 253 253 253 254 253 253 254 254 254 255 255 256 256 256 257 258 259 261 262 263 264 264 265 266 267 268 268 270 272 271 274 275 276 276 276 276 273 273 272 272
262 261 260 261 260 261 261 261 261 260 260 259 258 257 256 255 253 252 251 251 252 252 252 252 253 253 252 253 253 254 254 254 254 254 255 256 257 258 259 261 261 263 264 264 264 265 266 267 267 268 270 273 274 275 275 275 276 275 276 272 272 273
261 260 260 260 260 260 260 261 261 260 260 258 258 257 255 253 251 251 250 251 251 251 252 253 253 253 254 253 254 253 254 254 254 254 255 256 257 259 259 260 262 264 264 264 264 265 265 266 267 268 268 270 272 272 273 274 274 274 274 274 273 275
260 260 260 259 259 259 260 259 260 260 258 257 257 256 253 251 251 252 251 251 251 252 253 254 254 255 254 253 253 254 254 254 254 254 255 257 258 259 259 261 263 263 263 263 264 265 265 265 267 267 268 269 270 270 270 270 270 272 273 271 271 273
261 260 259 259 259 259 258 258 258 257 257 256 255 253 252 251 252 252 251 251 253 253 253 253 255 254 253 253 252 253 253 254 255 255 257 258 258 258 260 263 263 263 263 263 264 264 264 265 266 267 268 269 269 269 269 269 269 269 270 270 270 270
261 260 260 259 258 258 257 257 256 256 256 255 253 252 251 252 253 252 252 252 253 253 254 253 251 252 252 253 253 253 254 253 254 257 259 261 262 263 264 264 264 264 265 265 264 264 264 265 266 267 272 270 273 270 268 267 268 269 269 271 274 268
261 260 259 258 258 257 257 256 255 255 256 254 253 252 252 252 251 252 252 253 253 253 253 252 251 251 253 252 252 252 254 257 262 262 261 261 266 268 269 269 265 266 266 265 266 266 265 265 267 272 273 273 273 273 273 272 272 272 271 273 272 268
261 260 259 258 257 256 256 255 255 255 254 254 253 252 252 252 252 252 252 252 252 254 253 252 252 252 251 251 252 252 252 253 255 261 264 265 266 266 268 268 269 269 269 267 265 267 271 272 272 273 273 273 273 272 272 271 271 272 272 272 267 264
260 259 258 257 257 256 255 255 255 254 254 253 253 253 252 253 254 253 252 252 253 255 254 254 253 252 251 251 252 251 252 251 251 252 261 266 265 265 266 267 268 268 268 269 268 267 266 270 271 272 272 272 272 271 271 270 269 270 271 271 269 262
260 260 258 257 256 255 255 254 254 254 254 253 253 253 252 252 254 252 252 252 253 254 254 253 253 252 251 250 250 250 251 250 249 249 250 254 262 264 264 265 266 267 267 268 269 269 270 270 271 271 271 271 271 271 270 269 267 269 270 269 263 262
260 259 257 256 256 255 254 254 253 253 253 253 253 252 252 252 253 253 252 252 253 254 253 253 253 252 251 251 251 250 251 250 249 249 250 250 250 252 257 262 263 264 265 266 268 268 270 270 270 270 270 270 270 270 269 267 262 267 268 266 261 261
259 258 257 256 255 255 254 254 253 253 253 252 252 251 250 252 252 252 253 254 254 253 253 254 254 252 250 250 250 252 251 249 249 250 250 249 249 249 250 251 253 257 262 262 263 266 269 269 269 269 269 269 269 268 267 264 256 255 256 258 260 261
258 257 256 255 255 255 254 254 254 253 252 251 250 250 250 251 253 253 254 254 254 253 254 253 251 252 251 252 251 251 249 250 249 249 249 249 249 249 249 250 251 252 257 263 263 266 267 268 268 268 268 267 268 267 265 255 254 254 255 256 258 260

ECMWFFLT1_sfc_thetae_024.txt.gz
Theta_e
291 291 291 291 290 290 290 289 290 290 289 289 289 288 288 287 287 286 285 284 283 282 281 280 280 279 279 279 278 278 277 277 278 278 278 278 278 277 277 277 277 277 276 276 276 276 276 276 276 276 276 276 275 275 275 275 275 274 274 275 275 276
291 290 290 290 289 289 289 289 289 288 288 288 288 288 287 286 285 284 283 283 282 281 280 280 279 278 278 278 277 277 277 277 277 277 277 277 277 277 277 276 276 276 275 275 275 275 275 275 275 274 274 274 274 273 273 273 274 273 273 274 274 274
290 290 290 290 289 289 289 289 288 288 288 288 288 286 286 285 284 283 282 282 280 280 279 278 278 277 277 276 277 276 276 276 277 276 277 277 276 276 275 275 275 275 274 274 274 274 273 273 273 273 273 273 272 272 272 272 272 272 272 273 272 273
290 288 288 288 287 287 287 288 287 287 287 287 287 286 285 284 283 282 281 280 280 279 278 277 277 276 276 276 276 276 276 276 276 276 276 275 275 275 274 274 274 274 273 273 272 272 272 272 272 272 272 271 271 271 271 271 271 271 271 271 271 272
289 288 287 287 286 287 286 287 286 286 286 286 286 285 284 283 282 281 280 279 278 277 277 276 275 275 275 275 275 275 275 275 275 275 274 274 274 274 274 273 273 272 272 272 271 271 271 271 271 271 271 271 270 270 270 271 271 270 270 270 270 272
287 287 286 286 286 285 285 286 286 286 286 285 284 283 283 282 281 280 278 277 277 276 275 275 275 274 274 274 275 274 275 274 274 274 274 273 273 273 273 272 272 271 271 270 271 271 271 271 271 271 271 270 270 270 270 270 270 270 270 270 272 274
286 286 286 285 285 285 285 285 285 285 284 284 283 283 281 280 279 278 277 276 275 275 274 274 274 274 274 274 274 274 274 274 274 274 273 272 272 272 271 271 271 270 270 270 270 270 270 270 270 270 270 270 270 270 270 270 270 270 270 271 271 272
286 285 285 285 285 285 284 284 284 284 283 283 283 281 279 278 278 277 276 275 274 274 273 274 274 273 273 274 274 273 273 273 273 272 272 272 271 271 270 270 270 270 269 270 270 270 270 270 270 270 270 270 270 270 270 270 270 271 272 271 270 270
285 285 285 285 285 284 284 284 283 283 282 281 281 280 278 277 276 275 274 274 274 273 273 274 273 274 273 273 273 273 273 272 272 271 270 270 270 269 269 269 269 269 269 269 269 269 270 270 270 270 271 271 271 271 270 270 271 270 270 270 270 270
285 285 285 284 284 284 284 284 283 282 281 280 279 278 277 275 275 274 274 273 273 273 273 273 273 273 273 273 272 272 271 271 271 270 270 269 268 268 268 268 268 269 269 269 269 270 270 270 270 270 271 271 271 271 271 270 270 270 271 271 270 271
285 285 284 284 284 283 283 282 282 281 280 279 278 276 275 275 274 273 273 273 273 273 273 273 273 272 272 271 271 270 270 269 269 269 268 268 268 268 268 268 268 268 268 269 270 270 270 270 270 270 270 270 270 271 271 271 271 272 271 272 272 273
286 285 284 284 283 283 282 282 281 280 279 277 276 275 274 274 273 272 272 272 272 273 273 272 271 271 271 270 269 269 269 268 268 267 267 267 267 267 268 268 268 268 269 269 269 270 269 269 270 270 272 273 272 272 272 272 272 272 272 272 272 273
286 285 284 284 283 283 282 281 281 280 278 276 275 274 273 273 272 272 272 272 273 272 272 271 271 270 269 269 268 267 267 266 266 266 265 265 266 266 267 267 268 268 269 269 268 268 269 269 269 271 274 275 276 274 272 272 273 274 273 273 273 273
286 285 284 284 284 283 282 281 279 278 277 275 274 273 272 272 272 271 271 272 271 271 271 270 270 268 268 267 266 265 265 265 264 264 264 265 265 266 267 267 268 268 268 268 268 268 268 268 270 272 274 275 276 276 274 274 273 274 274 274 274 274
286 285 285 284 284 283 282 281 278 277 276 274 273 272 271 271 271 271 271 271 270 270 270 269 268 267 266 265 265 264 264 263 263 263 264 264 265 266 266 267 267 267 267 267 267 267 268 268 270 273 274 275 276 277 276 274 274 274 274 274 274 274
287 286 285 285 284 283 282 280 278 277 275 273 272 270 270 270 270 270 270 269 269 269 268 267 266 265 265 264 264 264 263 263 263 264 264 265 265 265 266 266 266 266 266 267 266 266 267 268 270 273 274 275 276 277 277 274 274 274 273 273 273 273
287 286 285 284 283 281 279 278 276 274 272 271 270 270 269 270 269 269 269 268 268 268 267 266 265 264 264 263 263 263 263 263 263 263 264 265 265 265 265 265 265 265 265 265 266 265 266 267 271 273 274 275 276 277 277 274 273 273 273 273 273 273
287 286 285 285 282 279 278 276 275 272 271 270 270 269 269 268 268 268 268 267 267 266 266 264 264 263 263 263 263 262 262 263 263 263 264 264 264 265 265 265 265 264 264 265 265 265 265 267 271 273 274 275 276 277 274 273 273 273 273 273 273 273
288 287 285 282 280 277 276 274 273 271 269 269 268 268 268 267 267 267 267 266 266 265 265 264 263 262 262 263 262 262 262 262 262 263 264 263 263 264 264 263 264 264 264 264 264 265 265 266 270 273 275 275 276 275 273 273 272 272 272 273 273 274
287 285 282 279 277 276 274 272 271 270 269 268 267 266 266 266 266 266 265 265 265 264 264 263 262 262 262 262 261 261 262 262 263 263 263 262 262 262 263 263 263 264 264 264 264 265 265 267 270 273 274 275 276 276 273 272 272 272 272 272 273 274
283 280 279 277 275 274 272 271 269 268 267 266 266 266 265 265 266 265 264 264 264 263 263 262 262 262 261 261 261 261 261 261 262 262 263 262 262 262 263 263 263 263 264 264 265 267 268 268 269 272 274 275 276 274 273 272 272 271 271 272 272 273
277 276 276 274 273 271 269 269 268 268 266 266 266 265 265 266 266 265 264 264 263 262 261 261 260 261 260 260 260 261 261 262 262 262 262 261 262 262 262 262 263 262 263 265 266 267 268 268 269 270 274 275 275 276 273 273 272 271 271 272 272 272
277 276 276 275 271 270 269 269 268 267 266 266 265 265 266 266 265 263 263 262 261 260 260 260 260 259 259 260 260 261 260 261 261 261 260 260 261 261 261 261 262 263 265 266 267 267 268 269 269 270 273 274 275 276 275 272 272 272 272 271 271 271
277 276 275 272 269 269 268 269 268 267 266 265 265 266 266 264 263 262 261 260 260 260 259 259 260 259 259 259 259 260 260 261 260 260 260 261 261 260 260 261 262 264 265 266 267 268 268 270 271 269 272 274 275 276 277 273 273 273 272 271 270 271
275 274 272 269 268 268 268 268 267 266 265 265 266 265 263 262 261 260 260 259 259 258 258 258 258 258 259 259 259 259 259 260 259 259 259 259 260 260 261 262 263 264 264 266 267 268 268 269 269 271 270 273 274 276 276 276 275 276 273 271 269 270
274 271 269 267 267 267 268 268 267 266 265 266 265 263 261 260 259 259 258 258 258 257 257 258 258 258 259 258 259 259 258 259 259 259 260 260 260 261 261 263 263 264 264 265 266 267 268 268 269 270 272 272 274 276 276 276 276 276 272 271 270 270
271 268 266 266 266 267 268 269 267 265 266 265 262 261 260 259 258 258 257 257 257 257 257 257 258 258 258 258 259 259 259 258 258 259 261 260 261 261 261 262 263 264 265 265 265 266 267 268 268 268 270 273 274 275 275 276 276 275 275 270 270 271
268 266 265 265 265 266 267 268 268 266 266 262 261 260 259 258 257 256 256 256 256 256 257 257 258 258 258 258 259 259 259 259 259 260 260 260 261 262 262 262 263 264 264 264 265 265 266 267 267 268 269 271 272 273 274 274 274 273 273 272 271 274
266 265 264 264 264 265 266 267 268 268 263 261 261 260 257 256 256 256 256 256 256 256 257 257 258 258 258 258 259 259 259 259 260 260 260 261 261 261 262 263 264 264 264 264 264 265 266 266 267 268 269 270 270 270 271 270 270 272 272 270 270 271
266 265 264 263 264 265 265 265 266 263 261 261 260 258 256 256 256 255 255 256 257 257 257 258 258 258 259 258 259 259 259 260 260 260 261 261 261 261 262 264 264 264 264 264 264 265 265 265 266 267 269 270 270 270 270 270 269 268 268 268 269 269
266 265 264 264 264 264 264 264 262 261 261 260 258 256 256 257 257 256 256 257 257 258 258 258 258 259 259 258 258 258 259 259 260 261 262 263 264 265 265 265 265 265 265 265 265 264 264 265 266 268 273 271 273 270 269 268 268 268 268 270 272 268
266 265 264 264 263 263 263 261 260 260 260 258 257 257 257 256 256 256 256 257 258 258 258 258 258 258 258 258 258 258 258 260 263 263 263 263 266 267 268 268 266 267 266 266 266 267 265 265 268 273 274 273 273 273 273 272 272 272 270 271 271 268
266 265 264 263 262 262 261 259 259 258 257 257 257 257 257 256 256 257 257 257 257 258 258 258 258 258 258 258 258 258 258 259 261 264 265 266 266 267 267 268 268 269 269 267 266 267 270 271 272 273 273 273 273 273 272 272 271 271 272 272 266 264
265 264 263 262 261 260 259 258 258 257 256 256 257 257 257 257 258 257 257 258 258 258 258 259 258 258 258 258 258 258 258 258 259 261 265 266 265 266 266 267 267 268 268 269 268 267 266 269 271 272 272 272 272 272 272 271 270 270 271 271 268 262
265 265 263 262 261 260 258 257 257 256 256 256 257 257 257 258 259 258 258 258 258 258 258 258 258 258 257 257 257 257 257 257 257 259 259 261 263 265 265 265 266 267 267 268 269 269 269 270 271 271 271 271 271 271 271 270 268 269 270 268 263 261
265 264 262 261 260 259 258 257 257 256 256 256 257 257 258 258 258 258 258 258 258 258 258 258 258 257 257 257 257 257 256 256 256 255 254 255 257 258 261 263 265 265 266 266 268 268 269 270 270 270 270 270 270 270 270 268 263 267 268 265 261 261
264 263 261 260 259 258 258 257 256 256 256 256 256 257 258 258 258 258 257 257 258 259 258 259 258 257 257 256 256 256 255 255 254 254 254 254 254 254 254 255 256 260 264 263 264 266 268 269 270 269 269 269 269 269 268 265 260 259 259 260 260 261
263 262 260 259 258 258 258 257 256 256 256 256 256 256 257 257 257 258 258 257 257 258 259 258 257 257 257 257 256 256 255 254 254 254 254 254 253 253 253 254 255 255 258 262 263 265 267 268 268 268 268 268 268 268 265 258 258 258 258 258 259 260

ECMWFFLT1_sfc_thetae_027.txt.gz
Theta_e
299 298 298 297 297 296 295 295 294 294 294 293 292 291 292 292 291 291 290 290 289 288 287 286 285 285 284 284 283 282 281 281 281 280 281 281 281 280 280 279 279 279 279 279 278 278 278 278 278 278 278 277 277 277 277 277 277 276 276 276 276 276
298 298 297 296 296 295 295 294 294 293 293 292 292 292 292 291 290 290 289 289 287 286 286 285 284 283 283 282 281 281 280 280 280 280 280 280 280 280 280 279 279 278 278 278 278 277 277 277 277 277 277 276 276 275 275 276 275 275 274 274 275 275
298 297 296 296 295 295 295 294 293 293 293 292 292 291 291 290 290 289 288 287 286 285 284 283 283 282 281 281 281 280 280 280 280 280 280 280 279 279 279 278 278 278 277 277 277 276 276 276 276 276 276 275 274 275 274 274 274 273 273 274 273 274
298 296 295 295 294 293 292 293 292 291 291 291 291 291 290 289 289 288 287 286 285 284 283 282 282 281 280 280 279 279 279 279 279 279 279 278 279 278 278 277 277 277 276 276 275 275 275 275 275 275 274 274 274 273 274 273 273 273 272 273 272 273
298 295 293 293 292 292 291 291 291 291 291 291 290 290 290 289 288 287 286 285 284 283 282 281 280 280 279 279 279 278 278 279 279 279 278 278 277 278 277 276 276 276 275 275 274 274 274 274 274 274 273 273 273 272 272 273 272 272 271 271 272 272
295 293 292 291 291 291 290 291 291 291 290 290 290 289 289 288 287 286 285 284 283 282 281 280 279 279 278 278 278 278 278 278 278 278 277 277 277 276 276 276 275 275 274 273 273 273 273 273 273 273 273 273 272 272 272 272 272 272 272 271 271 272
292 293 292 291 290 290 290 290 290 290 290 290 289 289 289 287 286 284 284 283 281 281 280 279 278 277 277 277 278 277 278 277 277 277 276 276 275 275 275 274 274 273 273 272 273 273 273 273 273 272 272 272 272 272 272 272 272 272 271 271 272 272
292 291 291 291 290 289 289 289 289 289 289 289 289 288 287 286 285 284 282 281 280 279 278 277 277 277 277 277 277 277 277 277 276 276 276 275 274 274 274 273 273 273 272 272 272 272 272 272 272 272 272 272 272 272 272 272 272 272 272 272 272 272
291 291 290 291 290 289 289 288 288 288 288 288 288 287 286 284 283 282 281 280 279 278 277 277 277 277 277 277 277 277 276 276 276 275 274 274 273 273 272 272 272 272 272 272 272 272 272 272 272 272 272 272 272 272 272 272 272 272 272 272 272 273
293 291 290 290 289 289 288 288 288 288 287 287 287 286 284 283 282 280 279 279 278 277 277 277 277 277 277 277 276 276 276 275 275 274 274 273 272 272 271 271 271 271 272 271 271 272 272 272 272 272 272 272 272 272 272 272 272 272 272 273 273 273
294 293 291 289 289 288 287 287 287 287 287 287 286 284 282 281 280 279 278 278 277 277 277 277 277 277 276 276 275 275 274 274 273 273 273 272 271 271 271 271 271 270 270 271 271 271 272 272 272 272 272 271 271 272 272 273 273 273 273 273 273 274
296 294 292 289 288 288 287 286 286 286 285 285 283 282 281 280 279 278 277 277 277 277 277 276 276 275 275 275 274 274 273 273 272 271 271 270 270 270 270 270 270 270 270 270 271 271 272 271 272 272 274 274 273 273 273 274 273 273 273 273 273 274
296 295 293 291 289 288 287 286 286 286 285 283 282 281 280 279 278 277 277 277 277 276 276 275 275 275 274 274 273 273 272 271 270 270 269 269 269 269 269 269 269 269 270 271 271 270 271 271 271 273 274 275 276 275 274 273 274 274 274 274 274 274
295 294 293 291 289 288 287 286 285 284 283 282 281 279 279 278 277 276 276 276 276 275 275 274 274 273 273 272 272 271 270 270 269 268 268 268 268 268 268 268 269 270 270 270 270 270 270 270 272 274 275 276 276 276 275 274 274 274 274 274 274 274
296 295 294 293 290 288 287 286 285 283 283 281 280 278 277 277 276 276 276 276 275 274 274 274 273 272 271 271 270 269 268 267 267 267 266 266 267 268 268 268 269 269 270 269 269 269 269 270 272 273 274 275 276 277 277 275 275 274 274 274 274 274
298 296 295 293 291 289 288 286 285 284 282 280 278 277 276 276 276 276 275 274 274 273 273 272 272 271 270 269 268 267 267 266 266 267 267 267 267 267 267 268 268 268 268 269 268 268 269 269 271 273 274 276 276 277 277 275 275 274 274 274 274 274
299 296 293 291 289 288 286 285 284 281 279 278 277 276 276 276 275 275 274 273 273 272 272 271 270 269 269 267 267 266 266 266 266 266 266 267 267 267 267 267 268 268 268 267 267 267 267 268 271 273 275 275 276 277 277 274 274 273 273 274 274 274
298 295 293 290 289 286 285 284 282 280 278 277 276 275 275 275 275 274 273 272 272 271 271 270 269 268 267 266 266 265 266 266 266 266 267 267 267 267 267 267 267 267 266 266 266 266 266 268 271 273 274 275 276 277 274 273 273 273 273 273 274 274
297 294 292 289 287 285 284 282 281 279 277 275 275 274 274 275 274 273 273 272 271 270 270 269 268 267 266 266 265 265 265 265 266 266 266 266 266 266 266 266 266 266 266 266 266 266 266 266 269 272 274 275 276 275 273 273 272 272 272 273 273 274
294 292 291 288 286 285 284 281 280 277 275 274 274 274 273 273 273 272 272 271 270 269 269 268 267 267 266 265 265 265 265 266 266 265 266 265 265 265 266 266 265 266 266 266 265 266 265 266 269 273 274 275 275 275 273 272 272 272 272 273 273 274
292 290 288 287 285 284 282 280 278 275 275 274 273 273 273 273 273 272 271 270 269 268 267 267 267 266 266 265 265 265 265 265 265 265 265 265 265 265 265 265 265 265 265 266 266 267 267 267 269 272 273 274 275 274 273 272 272 271 272 272 272 274
288 287 286 285 285 283 280 279 276 275 274 273 273 272 272 272 272 271 270 269 268 267 266 266 266 265 265 264 264 264 264 265 264 264 264 264 265 264 265 265 264 264 264 265 266 267 268 268 268 270 273 274 275 275 273 272 271 271 271 272 272 272
288 287 286 286 284 280 279 278 276 275 274 272 272 271 272 272 271 270 269 267 266 265 265 265 265 264 264 264 263 263 263 264 264 264 263 263 264 264 264 263 263 263 264 266 267 267 268 268 269 270 273 274 274 275 275 272 272 272 272 272 272 272
286 285 284 283 281 279 278 277 276 275 273 272 271 272 272 271 269 268 267 266 265 264 263 263 263 263 262 262 262 262 262 264 264 263 262 263 263 262 261 262 263 264 265 266 267 268 268 270 271 270 272 273 274 275 276 273 273 274 273 272 271 271
284 284 282 280 278 278 277 276 275 274 273 272 272 272 271 269 268 267 265 264 263 262 262 262 261 261 261 261 262 262 262 262 261 261 262 262 262 262 262 263 264 264 265 266 267 268 268 269 269 271 270 272 274 275 276 276 275 276 274 271 270 270
283 282 281 278 276 276 277 276 275 274 272 272 272 271 268 267 266 265 263 262 261 261 261 261 261 261 261 261 261 261 262 262 261 261 262 262 263 264 263 264 265 265 265 265 266 267 268 268 269 270 271 271 274 275 276 276 276 276 273 272 270 270
283 281 278 276 275 275 275 276 276 273 272 272 270 268 266 265 264 263 262 261 260 260 260 260 260 260 260 261 261 260 261 261 261 261 263 262 264 264 263 264 265 264 265 265 265 266 267 268 268 268 270 272 273 275 275 276 276 275 275 271 270 270
282 279 277 274 273 273 274 275 276 273 273 270 268 266 265 263 262 261 260 260 259 259 259 259 259 260 260 260 261 261 262 261 262 263 263 263 263 263 263 263 264 265 265 265 265 266 266 267 267 268 269 270 272 273 274 274 275 274 274 273 270 273
280 278 276 273 272 272 273 274 275 274 270 267 266 265 263 262 261 260 259 259 259 259 259 259 259 259 259 260 261 262 262 262 263 263 263 263 263 263 263 264 265 265 265 265 265 265 266 266 267 267 268 270 271 271 271 271 271 272 272 270 269 271
279 278 275 273 271 271 272 273 273 270 267 266 264 263 262 261 261 259 259 259 259 258 259 260 260 259 259 260 261 261 262 262 263 263 263 264 264 263 264 264 264 265 265 264 265 265 265 265 266 267 268 270 270 270 271 270 270 269 268 268 269 269
279 278 274 273 271 270 270 271 271 267 266 265 263 262 261 261 260 260 259 259 258 259 260 261 260 261 260 260 261 262 263 262 262 263 264 265 265 265 265 265 265 266 266 265 265 264 264 265 265 267 272 271 273 271 270 269 269 269 268 270 273 268
278 276 274 272 270 269 270 270 267 265 265 263 262 262 261 260 260 259 259 259 259 259 260 260 260 261 261 260 260 261 261 264 266 265 264 264 267 268 269 269 266 267 267 266 266 267 265 265 267 272 273 273 273 273 273 273 272 272 270 272 272 268
277 276 273 271 269 268 269 268 265 264 263 262 262 262 261 260 259 259 259 259 259 259 260 260 260 261 261 261 261 261 261 261 264 268 268 267 267 268 268 269 268 269 269 268 266 267 270 270 272 272 272 272 272 273 273 272 271 271 271 272 267 263
275 274 273 271 268 268 268 265 264 262 261 261 262 262 261 261 260 259 259 260 260 260 260 260 260 260 260 261 262 262 262 262 262 264 268 268 267 268 268 268 268 268 268 269 269 268 267 269 271 272 272 272 272 272 272 271 271 270 271 270 268 261
276 275 273 270 267 267 267 264 263 261 261 261 262 262 261 262 261 260 260 260 260 260 261 261 261 261 261 261 261 261 262 263 262 262 263 266 267 267 268 267 267 268 268 268 268 269 269 270 271 271 271 271 271 271 271 270 269 269 270 268 262 260
277 275 271 268 267 267 265 263 262 260 260 260 262 262 262 262 262 261 261 260 260 261 261 261 261 261 261 261 261 262 262 261 262 262 262 261 261 263 266 266 265 266 266 267 267 268 269 269 270 270 270 270 270 270 270 268 265 267 268 266 260 260
275 272 269 267 266 265 264 262 261 260 260 261 261 262 262 263 262 262 261 260 261 261 261 262 262 261 261 261 260 259 259 258 258 258 259 259 259 259 259 258 259 262 265 264 264 266 268 269 269 270 269 269 269 269 268 265 261 259 260 260 260 260
273 271 268 266 265 264 263 261 260 260 260 261 261 262 263 263 262 262 261 261 261 262 262 262 261 261 260 260 260 259 258 258 257 257 257 256 256 256 256 256 257 256 260 263 264 265 266 268 269 269 268 268 268 267 265 258 258 258 258 258 259 259

ECMWFFLT1_sfc_thetae_030.txt.gz
Theta_e
295 295 295 294 294 293 292 292 292 291 291 291 291 290 290 290 290 289 289 289 288 288 287 286 286 285 284 283 282 281 280 279 279 278 278 278 278 278 278 277 277 277 277 276 276 276 276 276 276 276 275 275 275 275 275 275 274 274 274 274 274 275
295 295 294 293 293 293 292 291 291 290 291 290 290 290 290 289 289 289 288 288 288 287 286 286 285 284 283 282 281 280 279 279 278 278 277 277 278 277 277 277 276 276 276 276 276 275 275 275 274 274 274 274 274 274 274 274 274 273 273 273 274 274
294 293 293 292 290 290 291 290 290 290 290 290 290 289 289 289 289 288 288 288 287 286 285 285 283 282 282 280 280 279 279 278 278 278 277 277 277 277 277 276 276 276 276 275 275 275 274 274 274 274 274 273 273 273 273 273 273 272 272 273 272 273
295 293 289 288 289 289 289 290 289 288 289 289 289 289 288 288 288 288 287 287 287 285 285 284 282 281 280 279 279 278 278 278 277 277 277 277 277 277 276 276 276 275 275 274 274 274 273 274 273 273 273 273 272 272 273 272 272 272 272 272 271 272
296 294 292 291 290 290 289 288 289 289 288 288 288 288 288 288 288 288 287 286 285 285 284 282 281 280 279 279 278 277 277 277 277 277 276 276 276 276 276 275 275 275 274 274 274 273 273 273 272 272 272 272 272 272 272 272 271 271 271 271 271 271
292 291 289 290 289 288 288 289 289 288 288 288 288 287 287 287 287 287 286 285 284 283 282 281 280 279 278 278 277 277 276 276 276 277 276 276 275 275 275 275 274 274 273 273 272 272 272 272 272 272 272 272 271 271 271 271 271 271 271 271 271 271
290 291 291 290 289 289 288 288 288 287 287 287 287 288 287 287 286 286 285 284 283 282 281 280 279 278 278 277 277 276 276 276 276 276 275 275 274 274 274 274 273 273 272 272 272 271 271 271 271 271 271 271 271 271 271 271 271 271 271 271 271 272
291 289 288 288 287 288 288 287 287 287 287 287 287 287 286 286 285 285 284 283 282 281 280 279 278 278 277 276 276 276 276 276 275 275 275 274 274 274 273 273 272 272 272 271 271 271 271 271 271 271 271 271 271 271 271 271 271 271 271 271 271 271
288 288 288 288 288 287 287 286 286 286 286 286 286 286 286 285 285 284 283 282 282 280 280 279 278 277 277 276 276 276 275 275 275 274 274 274 274 273 272 272 271 272 271 271 271 270 270 270 270 270 270 270 270 270 270 270 270 271 271 271 271 271
290 288 287 287 287 287 285 285 286 286 286 286 286 285 285 285 284 283 282 281 281 280 279 278 277 277 276 276 275 275 275 274 274 274 274 274 273 272 272 271 271 270 270 270 270 271 270 270 270 270 270 270 270 270 270 270 270 270 270 271 272 272
290 289 288 288 287 286 285 285 284 284 284 284 285 285 285 284 283 282 281 281 280 279 279 277 277 276 276 275 275 275 274 274 274 274 274 273 272 272 271 271 271 270 270 270 270 270 270 270 270 270 270 270 270 270 270 270 270 271 272 273 273 274
291 290 289 288 287 286 285 284 283 284 284 284 284 284 284 283 282 282 281 280 280 279 277 276 276 275 275 275 274 274 274 273 273 273 272 272 271 271 270 270 270 270 270 269 270 270 271 271 271 272 275 275 272 271 271 272 273 273 273 273 273 274
291 291 290 289 288 287 286 285 284 284 283 283 283 283 282 282 282 281 280 280 279 278 276 276 275 275 274 274 274 273 273 273 272 271 271 270 270 270 270 270 269 269 270 270 270 270 271 271 271 274 276 276 277 275 274 274 274 274 274 274 274 274
290 290 290 291 290 289 287 285 284 283 283 283 283 282 281 281 281 280 279 279 278 276 276 275 274 274 274 273 273 273 272 272 271 270 270 269 269 269 269 269 269 269 270 270 270 270 270 271 273 275 276 276 277 277 275 275 274 274 274 274 274 274
290 291 291 291 291 290 288 286 284 283 283 283 283 281 280 280 279 279 278 277 276 276 275 274 274 273 273 273 272 272 271 270 270 269 269 268 269 269 268 269 269 269 270 270 270 270 270 270 273 274 275 276 277 277 277 275 275 275 275 274 274 274
291 291 291 291 292 291 289 286 285 285 284 283 281 279 279 279 278 278 277 276 276 275 274 273 273 273 272 271 271 270 269 269 269 268 268 268 268 268 268 269 269 269 269 270 269 269 269 270 271 274 275 275 276 277 277 275 275 275 274 273 273 273
290 291 289 289 290 288 286 284 284 282 281 280 279 279 278 278 277 277 276 275 275 274 274 273 273 272 271 270 269 269 268 268 268 268 268 268 268 268 268 268 268 269 269 269 269 268 268 268 271 273 275 275 276 277 277 275 274 273 273 273 273 273
291 291 291 289 288 286 285 285 283 282 281 279 279 278 278 277 277 276 275 275 274 274 273 273 272 271 270 269 268 268 267 267 267 267 268 268 268 268 268 268 269 268 268 268 268 267 267 267 271 273 274 275 276 277 275 273 273 272 272 273 273 273
291 291 289 286 286 285 284 283 282 281 278 278 277 277 277 277 276 276 275 274 274 273 273 273 271 270 269 268 268 267 267 267 267 267 268 267 268 268 267 267 268 268 267 267 267 266 266 267 269 271 273 274 276 275 273 273 272 272 272 272 273 273
290 289 288 286 285 285 284 282 281 280 278 277 276 276 276 276 276 275 275 274 273 273 272 272 271 269 268 267 267 267 267 267 267 267 268 267 267 267 267 267 267 267 267 266 266 266 266 266 268 271 273 274 275 275 273 272 272 271 272 272 273 273
290 287 285 284 284 282 281 281 280 279 278 277 276 276 275 275 275 275 274 274 273 272 272 271 270 269 268 267 267 267 267 267 267 267 267 267 267 267 267 266 266 266 266 266 266 268 267 267 268 271 272 274 275 274 273 272 271 271 271 271 272 273
286 284 284 284 283 280 280 279 279 278 277 276 275 275 275 275 276 275 274 273 272 272 272 271 269 268 268 267 267 267 267 267 266 266 266 266 266 265 266 265 265 265 265 266 266 266 267 267 267 268 272 274 274 275 273 272 271 270 271 272 272 272
287 287 285 283 280 279 279 279 278 277 276 275 275 275 276 276 275 274 274 272 271 270 270 269 269 268 267 267 267 267 266 266 266 265 265 264 265 265 265 265 264 264 264 265 266 267 267 268 267 268 272 273 274 275 274 272 272 272 272 272 272 272
285 284 282 281 281 280 279 279 278 277 276 275 275 276 276 275 274 273 272 271 270 269 268 268 268 268 267 266 266 265 265 265 265 265 264 264 264 264 264 264 263 263 264 266 267 267 267 269 270 268 271 272 273 274 275 273 273 274 273 272 271 271
285 285 285 281 280 280 279 279 278 277 276 275 277 277 276 274 273 272 270 269 268 267 267 267 266 265 265 265 265 265 264 264 263 263 263 264 263 263 262 262 263 264 264 266 266 268 268 268 268 270 269 272 273 274 275 275 275 276 274 272 270 270
285 285 281 279 279 279 280 280 279 278 276 277 277 275 273 272 272 270 269 268 267 266 265 265 264 264 264 264 264 264 263 262 262 262 262 263 262 262 262 263 264 264 264 265 266 267 267 268 267 269 270 270 273 274 275 275 276 276 273 273 271 270
286 282 278 277 277 278 279 280 281 279 278 278 274 274 272 271 269 268 267 266 265 264 264 263 263 263 263 264 264 263 262 261 261 261 262 262 263 263 263 264 265 264 264 265 265 265 266 265 266 266 269 271 272 273 274 274 275 275 275 271 271 270
283 281 281 277 276 277 278 279 281 279 280 275 273 272 271 269 268 266 265 264 263 263 262 262 262 262 263 263 264 263 263 261 262 262 262 262 263 264 264 264 264 264 264 264 264 264 264 264 265 266 268 269 270 272 273 274 274 273 274 273 270 272
283 283 282 280 276 276 277 277 279 280 275 272 272 271 269 268 267 265 264 263 262 262 262 262 261 261 262 262 263 263 263 262 263 263 262 262 263 263 263 264 264 264 264 263 264 264 264 262 264 266 267 268 269 271 271 271 271 272 272 270 269 271
281 282 281 282 280 275 275 276 277 276 273 271 270 269 267 267 266 264 263 262 262 261 262 261 261 261 261 262 262 262 262 263 264 263 263 263 263 263 263 263 264 264 264 263 264 264 264 263 263 265 266 267 270 271 271 271 271 270 269 268 269 269
280 281 281 281 280 275 274 274 275 272 270 270 268 268 267 266 265 264 262 262 261 261 262 261 261 261 261 261 262 263 263 263 264 263 264 265 265 265 264 264 264 265 265 264 264 263 263 264 264 265 270 271 272 271 270 270 270 270 269 270 272 267
281 280 280 281 278 274 274 273 273 271 270 268 268 267 267 265 264 263 262 261 261 261 261 261 261 261 261 261 262 262 262 265 267 266 264 265 268 270 270 269 265 266 265 265 266 266 264 264 266 270 272 272 272 272 273 272 272 272 271 272 271 267
280 280 280 280 277 274 274 273 272 269 269 268 268 268 267 265 263 262 262 261 261 261 261 261 261 261 261 262 262 262 262 263 266 269 269 269 270 271 271 271 271 271 270 267 265 268 270 270 271 271 271 271 271 272 272 272 271 271 271 271 266 260
280 279 280 282 278 275 273 272 271 269 268 267 267 268 267 265 264 263 262 262 262 262 262 262 261 261 261 262 262 262 262 263 264 265 269 271 271 272 272 272 272 271 271 271 268 267 266 269 271 271 271 271 271 271 271 271 270 270 270 269 267 258
286 284 283 282 279 274 272 271 270 268 267 267 267 267 266 265 264 264 263 262 262 262 262 262 262 261 261 261 261 261 263 263 263 264 265 268 271 272 272 271 271 271 271 271 271 270 269 269 270 270 270 270 270 270 270 270 269 269 269 267 259 255
287 286 284 282 278 274 272 271 270 268 267 266 267 267 267 265 265 265 263 262 262 262 262 262 262 262 262 262 262 262 263 263 264 264 264 263 265 267 269 270 270 270 271 270 270 270 270 270 270 270 270 269 269 269 269 267 263 267 267 264 256 255
286 286 283 280 276 273 272 272 271 268 266 266 266 266 266 265 266 265 264 263 262 262 262 262 262 262 262 263 263 263 263 263 264 264 263 263 263 263 262 261 262 266 268 266 267 269 269 269 269 269 269 269 268 268 266 263 256 256 256 256 255 256
286 285 282 277 274 272 271 271 270 267 266 265 266 266 265 265 265 265 264 263 263 262 263 263 262 263 263 263 263 264 263 263 263 263 262 262 262 262 260 258 257 256 264 268 266 267 268 268 269 268 268 267 267 265 263 253 253 252 253 254 254 254

ECMWFFLT1_sfc_thetae_033.txt.gz
Theta_e
293 293 293 293 293 292 292 292 291 291 291 291 291 290 290 290 290 290 290 289 289 289 288 288 287 287 287 286 285 284 283 282 281 281 281 280 280 280 279 279 278 278 278 277 277 277 277 276 276 276 276 276 275 275 275 275 275 274 274 274 275 274
294 293 293 292 292 292 291 291 290 290 291 290 290 290 289 289 289 289 289 289 289 289 288 287 287 287 286 285 284 283 283 282 281 280 279 279 279 279 279 278 278 278 277 277 276 276 276 276 276 276 275 275 275 275 275 274 274 273 273 273 274 274
293 292 292 291 289 289 289 289 290 290 290 289 290 289 289 289 289 289 289 289 288 288 287 286 286 285 285 284 283 283 282 281 281 280 279 279 279 278 278 278 277 277 277 276 276 276 276 275 275 275 275 274 274 274 274 273 273 273 273 273 272 273
294 292 288 287 288 288 288 290 289 288 289 290 289 289 288 288 288 288 288 288 288 287 287 286 285 285 284 283 282 282 281 280 280 279 278 278 278 278 278 277 277 277 276 276 276 275 275 275 275 274 274 274 273 273 273 273 273 272 272 272 272 272
294 293 292 291 291 291 290 289 288 289 289 289 289 288 288 289 289 289 288 288 287 286 286 285 284 283 282 282 281 281 280 280 279 279 278 278 277 277 277 277 277 276 276 275 275 275 274 274 274 274 273 273 273 272 272 273 272 272 272 271 271 271
289 288 289 290 290 290 290 289 289 289 289 288 288 288 288 288 288 288 287 287 286 285 284 284 283 282 282 281 281 281 280 279 279 278 278 278 277 277 277 276 276 276 275 275 274 274 273 273 273 273 273 273 273 272 272 272 272 272 272 271 271 271
289 291 291 291 291 291 290 290 289 289 288 288 288 288 289 288 288 287 287 286 285 284 284 283 282 282 281 281 281 280 279 279 278 278 277 277 276 276 276 275 275 275 274 274 273 273 273 272 273 272 272 272 272 272 272 272 272 272 272 272 272 272
292 291 290 291 290 290 290 289 289 289 289 288 288 288 288 287 287 286 286 285 284 283 283 283 282 282 281 281 280 279 279 278 278 277 277 277 276 275 275 275 274 274 274 273 273 273 272 272 272 272 272 271 271 271 272 272 272 272 272 272 272 271
289 291 291 291 291 290 290 289 289 288 288 288 287 287 287 287 286 285 285 284 284 283 283 283 282 282 281 281 280 279 278 277 277 277 276 276 275 275 274 274 273 273 273 273 273 273 272 272 272 271 271 271 271 271 271 271 271 271 271 271 271 271
290 290 290 290 290 289 288 288 288 288 288 288 287 286 286 286 285 285 285 284 284 283 283 283 282 282 281 280 278 278 277 277 276 276 276 275 274 274 274 273 273 272 272 272 272 272 272 272 271 271 271 271 271 271 271 271 271 271 271 271 271 271
291 291 290 289 289 288 287 287 287 286 286 287 286 286 286 286 285 284 284 284 284 283 283 282 281 280 280 278 277 277 276 276 276 275 274 274 274 274 273 273 272 272 272 271 271 271 271 271 271 271 271 271 271 271 271 271 271 271 271 271 271 271
292 291 290 289 289 288 288 287 286 286 286 286 286 285 286 285 285 284 284 283 283 283 282 281 280 279 278 277 276 276 275 275 274 274 273 273 273 272 272 272 272 272 272 271 271 271 271 271 271 273 275 274 271 271 271 271 271 271 271 271 272 273
290 290 290 290 290 289 289 288 287 286 286 286 285 285 285 285 284 284 284 283 283 282 281 280 278 278 277 276 276 275 275 274 273 273 273 272 272 272 272 272 272 271 271 271 271 270 271 271 271 275 276 277 277 273 271 271 271 272 273 273 273 273
290 290 291 291 291 290 289 288 287 285 285 285 284 285 284 284 284 284 283 283 282 281 279 279 277 276 276 275 275 274 274 273 273 272 272 271 271 271 271 270 270 270 270 270 270 270 271 271 273 276 277 278 278 278 275 274 274 274 274 274 274 274
291 291 291 291 291 291 290 289 287 285 285 284 284 284 283 283 283 283 282 281 280 279 279 277 276 276 275 275 274 274 273 272 272 272 271 270 270 270 269 270 270 270 270 270 270 270 271 271 275 277 277 278 278 278 278 276 275 275 275 275 275 275
291 292 291 292 291 291 291 290 289 288 286 285 283 283 283 283 282 282 281 280 279 278 278 277 276 276 275 274 274 273 272 272 271 271 270 270 269 269 269 269 269 270 270 270 270 271 271 271 274 277 277 277 278 278 278 276 275 275 275 275 275 274
292 291 290 289 289 289 289 288 287 286 282 282 282 282 282 282 281 281 280 279 279 278 277 277 276 275 274 273 273 272 271 271 271 270 269 269 269 269 269 269 269 270 270 270 271 271 270 270 274 276 276 276 277 277 278 276 276 275 274 274 273 273
291 291 291 291 289 288 288 289 287 284 283 282 282 281 281 281 281 280 280 279 278 277 277 276 275 274 273 273 272 271 271 271 270 269 269 269 269 270 270 270 270 270 270 271 270 270 269 270 275 275 276 276 277 278 276 275 274 273 273 272 273 273
292 292 291 291 290 289 289 288 284 283 281 280 281 280 280 281 280 280 279 279 278 277 276 276 274 273 272 272 271 271 270 270 269 269 269 268 269 269 269 269 270 270 269 269 269 269 269 268 272 274 275 276 277 277 275 274 273 272 272 271 272 272
290 290 290 290 289 289 288 284 283 282 281 280 279 279 279 279 280 279 279 278 277 276 275 275 274 273 272 271 271 271 271 270 270 269 269 268 268 268 269 269 269 269 269 269 268 268 268 268 270 273 274 275 276 276 273 273 272 271 271 271 272 273
290 289 288 288 288 286 282 282 282 281 280 280 278 279 278 278 279 279 278 278 277 276 275 275 274 273 272 271 271 271 270 269 269 269 269 269 269 268 269 268 268 268 268 268 268 270 268 267 269 273 274 275 276 275 273 272 271 270 270 271 271 272
288 287 286 286 286 281 281 281 282 281 280 279 278 277 278 278 279 280 279 278 276 275 275 275 274 273 272 272 271 271 270 270 269 268 269 269 269 268 268 268 267 267 267 267 267 268 268 267 268 270 274 275 276 276 273 272 271 270 270 271 271 272
287 287 286 284 280 279 280 280 281 281 280 278 278 278 279 280 279 278 277 277 275 274 274 274 274 273 272 272 271 270 269 269 268 268 268 268 268 267 267 266 266 266 266 267 267 267 268 268 267 268 273 274 275 276 275 272 272 271 271 271 272 272
288 288 285 280 278 278 278 279 280 279 277 277 277 279 280 278 277 277 276 276 275 274 274 273 273 272 271 270 270 269 269 269 268 268 267 267 266 266 265 265 265 265 265 266 266 267 266 269 270 267 272 275 275 275 275 272 272 273 272 272 272 272
289 289 285 280 278 279 280 280 280 279 277 277 279 279 277 277 276 276 276 275 274 273 273 272 272 271 271 270 269 269 268 267 266 266 266 265 265 265 265 265 265 264 265 265 266 267 267 267 269 272 270 273 274 275 275 275 274 276 274 272 271 271
289 289 287 279 279 279 281 282 282 280 278 279 278 277 276 276 275 275 274 274 273 272 272 271 271 271 270 270 269 268 267 266 265 265 265 265 265 264 264 264 264 265 265 265 265 266 267 267 267 271 272 271 274 274 275 275 275 275 274 273 271 271
288 288 288 284 279 279 280 282 283 282 280 280 277 277 276 275 274 274 273 272 272 271 271 270 270 269 269 268 268 267 266 265 265 264 265 264 264 264 263 264 265 265 265 265 265 266 267 267 267 266 270 272 272 274 274 274 275 274 274 272 271 271
287 286 285 286 281 279 279 280 282 282 283 278 277 277 276 274 273 273 272 271 271 270 269 269 268 268 268 267 268 267 266 265 264 264 264 264 264 264 264 264 265 265 265 265 266 266 266 266 266 266 267 270 272 272 273 274 274 273 273 273 271 272
287 286 286 285 284 279 279 280 281 283 279 276 277 276 275 273 273 272 270 270 269 268 268 268 267 266 266 266 267 266 266 265 265 265 264 264 264 264 265 265 265 265 265 265 265 266 266 265 265 266 266 267 268 269 270 271 271 272 272 270 269 270
287 287 287 287 287 284 281 280 280 281 278 276 276 274 273 272 272 271 269 269 268 267 266 266 265 265 265 266 266 265 265 264 265 264 264 264 265 265 265 265 265 265 265 265 265 265 264 264 265 265 265 267 268 268 270 271 270 270 268 268 269 268
286 286 286 286 287 285 282 281 281 280 278 276 274 273 272 272 270 270 268 267 266 265 266 266 265 265 265 265 265 265 265 265 265 265 265 267 268 267 267 266 266 266 267 266 265 264 264 264 264 265 269 268 271 270 270 270 270 270 269 270 272 265
285 285 285 286 287 285 282 281 281 279 278 275 273 272 272 271 269 268 267 266 266 265 265 265 265 265 265 265 264 264 264 267 269 267 266 267 270 271 271 271 267 267 267 266 266 266 264 264 265 271 273 273 274 274 273 272 272 272 270 271 270 264
284 285 285 285 285 285 284 282 281 278 276 274 273 273 273 271 269 268 266 265 265 265 265 265 265 264 264 264 264 264 264 265 268 271 270 270 271 272 272 272 272 272 271 267 265 268 270 270 272 273 274 274 273 273 272 272 271 271 271 270 264 256
283 283 284 285 285 285 285 284 282 279 276 274 273 272 273 271 270 268 267 266 266 265 265 265 265 265 264 264 264 264 264 265 265 267 271 272 273 273 274 273 274 273 272 271 269 268 268 272 273 274 274 273 273 272 272 271 271 271 270 268 266 255
282 283 284 285 285 286 285 284 283 280 275 273 272 272 272 271 271 270 268 267 266 265 265 265 264 264 264 264 263 263 265 265 265 265 266 270 274 275 274 274 274 274 273 273 272 272 271 272 273 274 273 273 272 272 271 271 271 270 269 266 256 250
280 281 282 283 284 284 285 284 283 280 276 273 272 272 272 272 271 271 270 267 266 265 265 265 264 264 264 264 264 264 265 266 266 266 267 267 268 270 273 274 274 274 274 273 273 272 273 273 274 273 273 272 272 271 270 269 267 269 267 262 253 253
278 278 279 280 280 281 282 283 283 282 276 273 272 272 272 272 271 271 269 267 266 266 265 265 264 264 264 264 264 265 265 266 266 267 267 267 267 267 267 268 270 273 274 271 272 273 274 274 273 273 272 271 271 270 268 267 258 255 254 253 252 253
274 275 276 277 278 280 281 282 283 282 276 273 271 271 271 272 271 270 269 267 266 266 266 265 264 264 265 265 265 265 266 266 266 266 267 267 268 267 266 267 268 269 273 274 273 274 274 273 273 272 271 270 269 268 267 255 252 251 251 251 250 250

ECMWFFLT1_sfc_thetae_036.txt.gz
Theta_e
293 293 292 292 292 292 292 292 291 291 291 291 290 290 290 290 291 290 290 290 290 290 289 289 288 288 288 287 287 285 285 284 284 284 284 283 282 282 282 281 281 280 280 279 279 278 278 278 278 277 277 277 276 276 276 275 275 275 275 275 275 275
293 293 292 291 291 291 291 291 290 290 291 290 290 290 290 289 289 289 289 290 290 290 289 289 289 288 288 287 286 285 284 284 284 283 282 282 282 282 281 281 280 280 279 279 278 278 278 277 277 277 276 276 276 276 275 275 275 274 274 274 275 275
293 291 290 289 288 288 288 289 290 291 290 290 290 290 289 289 290 289 290 290 289 289 288 288 288 287 287 286 285 285 284 284 284 283 283 281 281 281 281 280 280 280 279 279 278 278 277 277 276 276 276 276 275 275 275 274 274 274 274 274 273 273
294 290 288 286 286 287 288 289 289 288 289 290 290 290 289 289 289 289 289 289 289 288 288 288 287 287 286 285 285 284 284 283 283 283 281 281 281 281 280 280 280 279 279 278 278 277 277 277 276 276 276 275 275 274 274 274 274 273 273 273 272 272
291 289 288 289 289 290 288 287 288 289 289 289 289 289 289 290 290 289 289 289 288 288 288 288 286 286 285 285 284 284 284 283 283 282 281 281 280 280 280 280 279 279 278 278 277 277 276 276 276 276 275 275 275 274 273 273 273 273 272 272 272 272
289 289 289 290 289 288 288 289 289 289 289 289 289 289 289 289 289 289 288 288 288 288 287 287 286 285 285 284 284 284 284 283 282 282 281 281 280 279 279 279 279 278 278 277 277 276 276 276 275 275 275 275 274 274 273 273 273 273 273 272 272 272
290 292 292 292 291 290 290 289 289 289 289 289 289 289 290 290 290 289 288 288 287 287 287 286 285 284 284 284 284 284 283 282 282 281 280 280 279 279 278 278 278 277 277 277 276 276 275 275 275 274 274 274 274 273 273 273 272 272 272 272 273 273
291 291 291 291 291 291 291 290 290 290 289 289 289 289 289 289 289 289 288 288 287 286 286 285 285 285 284 284 284 284 283 282 281 280 280 279 279 278 278 278 277 277 277 276 276 275 275 275 274 274 274 273 273 273 272 272 272 272 272 272 273 273
289 291 291 292 292 291 291 291 290 290 289 289 289 289 289 289 288 288 288 287 286 286 286 285 285 285 285 285 284 284 282 281 280 280 279 279 278 278 277 277 276 276 276 276 275 275 274 274 274 273 273 272 272 272 272 272 272 271 272 272 272 272
294 292 292 292 292 292 291 291 290 290 290 289 289 288 288 288 287 287 287 287 286 286 286 286 286 285 285 284 284 283 282 281 279 279 279 278 278 277 277 276 276 276 275 275 274 274 274 273 273 272 272 272 271 271 272 271 271 271 271 271 272 272
294 294 292 292 291 291 291 291 290 289 289 289 289 288 288 288 287 287 287 286 286 286 286 286 285 285 284 283 282 281 280 280 279 279 278 277 277 277 277 276 276 275 274 273 273 273 273 273 272 272 272 271 271 271 271 271 271 271 271 271 272 272
292 292 293 292 291 291 291 291 290 289 289 289 289 288 287 287 286 286 286 286 286 286 286 285 284 284 283 282 281 280 280 279 278 278 277 277 277 276 276 275 275 274 274 273 272 272 272 272 272 274 277 275 272 271 271 271 271 271 271 271 271 271
292 293 293 293 293 293 293 293 292 291 289 289 288 287 287 287 286 286 286 286 286 286 285 284 283 282 281 281 281 279 278 278 277 277 276 276 275 275 274 274 274 273 273 273 272 272 272 272 272 277 279 279 277 272 271 271 272 272 272 272 271 271
291 291 292 292 293 294 295 294 292 290 289 289 288 288 287 286 286 286 286 286 286 285 284 283 282 281 281 280 279 278 278 277 276 275 275 275 274 274 273 273 273 273 273 273 272 272 272 272 276 279 280 280 279 276 272 272 272 272 272 272 272 273
290 291 292 292 293 294 294 293 292 291 290 288 288 287 285 285 285 286 285 285 284 284 283 282 281 280 280 279 279 277 276 276 275 275 274 274 274 273 273 273 273 272 273 272 272 271 272 272 277 280 281 281 280 278 275 272 272 272 273 273 274 274
289 290 290 291 291 292 293 292 291 292 291 288 284 284 285 285 285 285 285 284 283 283 282 281 280 280 279 278 277 276 276 275 275 275 275 274 273 273 273 273 272 272 272 272 272 271 271 271 276 280 281 281 281 280 276 272 273 274 275 274 274 275
288 289 289 290 291 291 292 291 291 290 289 286 285 284 284 284 284 284 284 283 283 282 281 281 280 279 278 277 277 276 275 275 275 275 274 274 273 273 273 272 272 272 272 271 271 271 271 270 277 281 282 282 282 282 279 274 275 275 275 275 275 275
286 287 288 289 290 290 291 291 291 289 289 284 284 283 284 284 284 284 283 282 282 281 281 280 279 279 278 277 276 275 275 275 275 275 274 274 273 273 273 272 272 271 271 271 270 270 269 270 278 281 282 282 282 282 277 275 275 275 275 275 275 275
286 287 288 288 289 289 289 288 287 287 286 282 283 282 282 283 283 283 283 283 282 282 281 280 279 278 277 276 276 275 275 275 275 275 274 273 273 273 272 272 271 271 270 270 270 270 270 270 277 281 282 282 282 281 276 276 275 275 274 274 274 273
287 288 288 288 288 288 285 284 284 283 283 282 280 280 281 282 283 283 283 283 282 281 280 280 279 278 277 276 275 275 276 275 275 275 274 273 272 272 272 272 271 271 270 270 270 270 269 269 276 281 281 281 281 279 275 275 274 273 273 272 272 272
286 287 288 289 288 288 283 281 280 280 280 279 279 278 279 281 282 282 282 283 282 281 280 279 279 278 277 276 276 276 276 275 275 274 273 273 273 272 272 271 270 270 270 270 270 272 270 269 275 281 281 281 281 278 275 274 273 272 271 271 270 272
286 287 287 288 287 286 283 281 281 280 279 278 276 277 279 280 281 282 281 280 279 279 278 278 278 278 277 277 277 276 276 275 274 273 272 272 272 271 271 270 270 269 269 269 269 270 270 269 271 277 280 280 281 280 274 273 272 270 270 270 270 270
287 286 287 288 287 285 284 281 282 282 281 278 277 278 279 280 280 280 279 279 278 278 278 278 279 278 278 277 276 276 275 274 273 272 271 271 271 270 270 269 269 268 268 268 269 269 268 268 270 275 280 280 280 280 276 273 272 271 270 270 270 271
286 287 287 288 288 286 283 282 283 283 281 280 281 280 279 278 278 278 278 278 278 277 277 278 278 278 277 276 276 274 274 273 273 272 271 271 270 269 269 269 268 267 267 267 268 268 268 270 272 272 278 279 280 280 278 273 272 272 271 270 270 271
285 286 286 287 287 286 284 282 283 284 283 283 284 280 279 277 277 277 277 277 277 276 276 276 277 277 276 275 275 274 273 272 271 271 271 270 269 269 268 267 267 266 266 266 266 267 268 269 271 274 275 279 280 280 279 276 275 276 272 271 270 272
285 285 286 287 287 287 285 283 283 284 283 285 284 281 278 277 277 277 277 276 276 275 275 275 275 275 274 274 274 273 272 271 270 270 270 270 269 268 267 267 267 266 266 265 266 266 267 269 270 273 276 277 280 280 280 278 277 277 273 273 272 273
284 285 285 286 286 286 286 284 283 283 283 286 283 282 279 277 276 276 275 274 274 275 274 274 274 274 273 273 273 272 271 270 269 269 269 269 269 268 267 267 266 265 266 265 265 266 267 268 269 271 274 277 278 279 279 278 278 277 277 274 273 272
284 284 283 284 285 285 286 285 284 283 285 284 281 280 279 277 276 275 275 275 274 274 273 273 273 273 272 272 272 272 271 270 269 269 268 268 268 268 267 267 266 266 266 266 266 266 266 267 268 270 272 274 276 277 278 278 278 277 277 274 272 273
281 281 282 282 283 284 285 285 286 285 285 284 282 279 278 277 276 276 275 274 274 273 273 273 272 272 271 271 271 271 271 269 269 269 268 268 268 267 267 267 266 266 266 266 266 266 267 267 268 269 270 271 272 273 274 275 275 276 275 273 271 271
280 280 280 281 282 283 284 285 285 286 286 285 283 278 277 276 276 276 275 274 273 272 272 272 270 270 270 270 271 270 270 269 269 269 268 268 268 268 267 266 266 266 266 266 267 266 266 266 267 267 268 269 270 270 271 272 271 271 269 269 269 268
278 279 279 280 281 282 283 283 285 285 285 285 283 278 277 276 275 275 275 274 272 271 271 271 271 271 271 270 270 270 270 269 269 269 269 270 270 270 269 267 267 267 268 268 268 266 265 266 266 267 271 269 272 270 270 270 269 269 268 270 271 265
277 277 277 278 279 280 281 282 283 284 285 284 282 278 277 277 276 274 274 273 272 271 270 270 270 270 270 270 269 269 269 270 272 271 269 269 272 274 274 273 269 269 269 269 269 268 267 266 267 272 274 274 274 274 274 273 273 272 270 272 273 266
275 275 276 276 278 278 279 280 281 282 283 284 282 278 277 277 276 274 274 271 271 271 270 270 270 269 269 269 269 269 268 267 270 273 273 272 272 273 274 275 274 274 273 270 268 270 271 271 273 274 275 275 275 275 275 275 274 274 274 273 267 261
273 273 274 275 275 276 276 277 278 279 280 282 282 279 277 276 276 275 274 273 271 270 269 269 269 269 268 268 268 268 267 267 266 268 273 274 273 274 275 275 275 275 275 274 271 270 269 273 275 276 276 276 276 276 276 275 275 275 275 272 270 258
271 271 272 272 272 272 272 272 273 275 276 278 279 278 276 276 276 276 276 274 272 270 269 269 268 268 268 267 267 266 267 266 266 266 267 270 274 275 275 275 275 275 275 275 274 274 273 274 276 277 277 277 277 277 276 276 275 275 274 271 262 258
269 268 268 268 268 269 269 270 271 272 274 275 277 277 277 277 277 276 277 276 273 270 269 268 268 268 267 267 267 267 267 267 267 267 267 267 268 271 273 276 276 276 276 275 275 275 275 276 277 277 277 277 277 276 276 275 272 274 272 266 257 257
266 266 266 267 268 268 268 268 269 271 272 273 274 275 276 276 277 277 275 272 272 271 270 269 268 268 267 267 267 266 266 267 268 268 268 267 268 268 269 270 272 275 276 273 274 276 277 277 278 278 277 277 276 276 276 274 268 263 259 257 255 256
264 264 264 265 265 265 265 266 267 269 270 272 273 274 275 276 276 276 276 275 272 271 270 269 269 268 267 267 267 267 267 267 268 268 268 268 269 269 269 270 271 272 275 276 276 277 277 278 278 277 277 276 276 275 274 264 261 259 257 256 255 254

ECMWFFLT1_sfc_thetae_042.txt.gz
Theta_e
291 292 292 291 291 290 288 288 287 287 287 288 288 289 289 289 289 288 288 288 289 289 289 289 289 289 289 289 288 287 287 286 286 286 286 284 285 285 284 284 283 283 283 283 282 281 281 280 280 280 279 279 279 279 278 278 278 278 277 277 277 277
293 292 292 291 290 290 289 288 286 286 287 287 288 288 287 287 287 287 288 288 288 289 288 288 289 289 289 288 288 287 286 286 286 285 285 285 285 284 284 284 283 283 283 283 282 281 281 280 280 280 279 279 279 279 278 278 278 278 277 277 277 277
292 292 290 291 288 287 288 289 289 289 287 287 287 287 287 287 288 287 288 288 288 288 288 288 288 288 288 287 287 287 286 286 286 285 286 284 284 284 284 284 283 283 283 282 282 281 281 280 280 280 279 279 279 279 278 278 278 277 277 277 276 276
289 289 289 289 289 289 290 291 289 289 289 289 288 287 286 287 287 288 288 288 289 288 288 288 288 288 287 287 286 286 286 286 286 286 285 285 285 284 284 284 283 283 283 282 282 282 281 280 280 280 280 279 279 278 278 277 277 277 277 276 276 276
286 287 287 287 288 288 289 289 290 290 289 288 287 287 287 287 288 287 287 287 288 288 288 287 287 286 286 286 286 286 286 286 286 286 285 285 284 284 284 284 283 283 283 282 282 281 281 280 280 280 279 279 279 278 278 277 277 277 277 276 276 276
285 286 286 286 287 287 288 289 289 290 290 289 288 288 288 288 287 287 286 287 287 287 287 287 287 286 286 286 287 286 287 287 286 286 285 285 284 283 284 284 283 283 282 282 282 281 281 280 280 280 279 279 279 278 278 277 277 278 277 277 277 276
284 284 285 285 286 286 287 288 288 289 289 290 290 289 289 288 288 287 287 286 286 287 287 287 286 286 286 286 287 287 287 287 286 285 285 284 284 284 283 283 283 282 282 282 282 281 281 280 280 280 279 279 279 279 278 278 277 277 277 277 277 277
284 284 284 285 286 286 286 287 287 288 288 289 289 289 289 290 288 287 287 286 286 286 286 286 286 286 287 287 287 287 287 287 286 285 284 284 284 284 283 283 283 283 282 282 282 281 281 281 280 280 279 279 279 279 278 278 277 278 277 277 277 276
283 283 284 285 285 286 286 287 287 287 287 287 288 289 289 289 288 288 287 287 286 286 286 285 286 286 287 287 287 287 287 286 286 285 285 284 284 283 283 283 282 283 282 282 282 281 281 280 280 280 279 279 279 278 278 277 277 277 277 276 276 276
282 283 283 284 284 285 286 286 287 286 286 286 287 288 288 288 288 288 287 287 286 286 287 287 287 287 287 287 287 287 287 286 286 286 285 284 283 283 283 283 283 283 282 282 282 281 281 280 280 279 279 279 278 278 277 277 277 276 276 276 275 275
282 282 282 283 283 284 284 285 286 286 286 286 286 287 287 287 287 287 287 287 287 287 287 287 287 287 286 286 286 286 286 286 286 286 285 284 283 284 283 283 282 282 281 281 281 281 281 280 280 279 279 278 278 278 277 277 276 276 275 275 274 274
281 282 282 282 283 283 283 284 285 285 284 284 285 286 286 287 286 286 286 286 286 287 287 287 287 286 286 285 285 286 286 285 285 284 284 284 283 283 282 282 281 281 281 281 280 280 280 280 280 281 283 282 278 278 277 277 276 276 275 275 274 273
281 282 282 282 282 283 283 284 284 284 284 284 284 285 285 285 286 286 285 285 286 286 286 286 286 286 286 286 286 286 286 285 285 284 284 283 283 282 282 281 281 281 281 281 280 280 280 280 280 283 284 284 284 279 277 276 276 276 275 274 273 272
282 282 282 283 283 283 283 283 284 284 283 283 283 284 284 284 284 285 285 285 285 285 285 285 286 286 286 285 285 285 285 285 284 284 284 283 282 282 282 281 281 281 281 281 280 280 280 279 282 284 285 285 285 282 278 277 276 275 275 274 274 273
282 283 283 284 284 284 284 284 283 283 283 283 283 283 283 283 283 283 284 284 284 284 284 284 284 284 285 285 285 285 284 284 284 283 282 282 282 282 281 281 281 280 281 281 280 280 280 279 283 284 285 285 285 284 280 276 276 275 274 274 274 274
283 283 283 284 284 284 285 285 284 284 284 283 283 283 282 282 282 282 283 283 283 283 283 282 283 283 284 284 284 283 283 282 283 283 283 282 281 281 281 280 280 280 280 280 280 280 280 279 282 285 285 286 286 285 282 276 275 275 274 274 274 274
283 283 283 283 284 284 285 285 285 285 284 284 283 283 282 282 282 282 282 282 282 283 282 282 281 281 282 282 282 282 282 282 282 282 282 282 281 281 281 280 280 280 280 280 280 279 279 279 282 284 285 286 286 285 283 276 275 275 274 274 274 274
282 282 282 284 284 284 284 284 285 285 284 284 284 284 283 283 282 282 282 281 281 281 282 281 280 281 281 281 281 280 281 281 281 281 281 280 281 281 281 280 280 280 279 279 279 279 278 278 282 284 285 286 286 286 280 276 275 274 274 274 274 274
282 282 283 283 284 283 283 284 285 284 283 283 283 283 283 283 283 283 282 281 281 281 281 280 280 279 280 280 279 279 279 279 279 279 278 278 278 279 279 279 280 280 280 279 279 278 278 277 281 284 285 286 286 285 278 275 274 274 273 273 273 273
282 282 283 282 283 283 283 284 284 283 282 282 282 283 283 283 282 283 282 282 282 281 281 281 280 280 279 279 278 278 279 277 277 278 277 278 277 277 277 276 277 278 278 279 278 278 277 276 279 283 285 286 286 283 276 275 274 273 273 273 273 274
282 282 282 282 282 282 283 283 283 282 281 281 281 282 281 282 282 282 282 282 282 282 282 281 281 281 280 279 279 278 278 277 277 275 273 275 276 277 277 277 277 276 276 277 278 279 278 276 278 283 285 285 286 282 275 274 273 273 272 273 272 274
281 281 281 281 281 282 282 282 282 281 281 280 281 281 281 281 282 283 282 282 282 282 282 282 281 281 280 280 280 280 279 278 276 275 274 273 275 274 275 276 276 276 275 276 276 276 277 276 276 281 284 285 286 283 276 274 273 272 272 273 273 273
280 280 280 281 281 281 281 281 280 280 280 280 280 280 280 281 282 282 282 282 282 282 282 281 281 280 280 280 279 279 278 277 278 276 274 273 272 272 273 274 275 275 275 274 275 275 276 275 275 279 284 285 286 284 278 274 274 274 273 273 273 273
279 279 280 280 280 280 280 280 279 279 279 279 278 279 281 281 281 281 282 282 282 281 281 281 281 280 279 279 278 278 278 277 275 276 275 274 273 273 273 274 274 274 273 273 274 274 274 275 277 277 282 285 286 284 281 275 275 275 274 273 273 273
277 277 278 278 278 278 279 278 277 277 277 277 278 279 280 280 280 280 281 281 281 281 281 280 280 280 279 278 278 277 277 276 274 274 274 274 274 274 273 273 273 273 272 272 272 273 274 274 276 279 280 284 285 285 282 279 277 279 275 274 273 273
276 276 276 276 276 276 276 276 276 276 276 276 278 279 279 279 279 280 280 280 280 280 281 280 279 279 278 278 277 277 277 276 275 274 274 274 274 273 273 273 272 272 272 271 271 272 273 273 274 277 280 282 285 286 284 281 280 280 275 275 274 274
273 274 274 274 274 274 274 274 274 274 274 276 277 277 277 277 278 278 277 277 278 279 280 280 279 278 278 278 277 276 276 276 274 273 273 273 273 273 273 273 272 272 272 272 271 271 272 272 273 274 278 281 283 285 285 282 281 281 279 274 273 274
272 272 272 272 273 273 273 273 272 272 273 275 275 275 275 275 275 275 275 276 277 277 278 278 278 279 278 277 277 277 277 276 275 274 274 273 273 273 273 273 272 272 272 272 271 271 270 271 272 273 275 279 281 283 285 283 281 280 279 276 274 276
271 270 271 271 272 272 272 272 272 273 273 273 273 273 273 273 273 273 273 273 273 274 274 274 275 277 278 277 277 276 276 276 276 275 274 274 273 273 273 273 273 272 272 272 271 270 270 269 271 272 273 276 278 280 282 282 280 280 278 275 274 276
269 269 269 270 271 271 271 271 271 271 271 271 272 271 271 271 271 270 270 270 270 271 271 272 273 275 276 277 276 276 276 276 276 275 275 274 274 273 273 273 273 273 272 272 272 270 269 269 270 271 272 274 277 279 281 280 278 277 274 273 274 274
268 269 268 269 270 270 270 270 270 270 270 270 269 269 268 268 269 268 267 267 268 268 270 271 272 273 275 276 276 276 277 276 276 275 275 277 277 276 275 275 274 274 274 273 272 270 269 269 269 270 275 275 278 279 279 278 277 276 273 275 277 274
268 267 268 268 269 268 268 268 268 269 269 268 267 267 266 266 266 265 265 266 266 267 269 270 271 272 273 274 275 276 276 277 279 278 276 276 278 280 280 280 276 276 275 274 273 273 271 270 271 275 277 278 280 281 282 280 280 278 275 277 279 275
267 267 266 267 267 267 267 266 266 266 266 266 265 265 264 264 264 264 264 265 266 267 268 269 269 270 271 272 274 275 275 275 276 280 281 280 279 279 280 281 281 281 279 275 273 274 278 276 276 277 278 278 280 281 282 282 280 279 278 279 275 272
265 264 264 265 265 264 264 264 264 264 264 264 263 263 263 263 263 262 263 264 264 266 266 266 267 268 269 270 271 273 274 274 274 274 278 281 281 281 280 280 281 281 281 280 277 274 273 276 277 277 278 279 280 281 282 282 281 280 279 280 277 270
263 263 262 262 262 261 261 261 261 262 262 262 262 262 261 261 261 261 261 262 263 263 264 265 265 266 267 268 269 271 272 273 273 273 273 275 280 281 281 280 280 281 281 281 280 279 276 276 277 278 278 279 280 281 281 282 281 280 280 279 273 269
260 260 260 259 259 259 259 259 260 260 260 260 260 260 260 260 260 260 260 261 261 261 262 263 263 264 265 266 268 269 271 273 273 273 273 273 272 274 278 280 281 280 281 281 280 279 278 278 278 278 278 279 280 281 281 281 280 281 281 277 270 269
258 258 258 258 258 258 258 257 258 259 259 259 259 259 259 259 259 260 261 262 263 262 263 263 264 264 265 266 268 269 270 271 272 273 273 273 272 272 271 273 275 279 280 278 279 280 279 278 278 278 279 279 280 280 281 282 278 276 276 274 270 268
256 256 257 257 256 256 256 256 258 258 258 259 258 258 258 259 259 260 260 261 262 263 263 264 266 267 268 269 270 271 271 272 272 273 273 273 273 272 272 272 273 274 278 280 280 280 280 279 279 279 279 279 280 280 281 277 275 274 274 270 268 267

ECMWFFLT1_sfc_thetae_045.txt.gz
Theta_e
287 287 288 289 289 290 290 291 291 291 291 291 290 289 289 289 289 289 289 289 290 290 290 291 291 291 291 292 291 290 290 289 289 288 289 289 288 288 288 287 287 287 287 287 286 286 285 285 284 284 284 283 283 283 283 283 282 282 282 282 282 282
286 286 286 287 288 288 290 290 290 290 290 290 290 290 290 290 290 289 289 289 289 290 290 290 290 291 291 291 291 289 289 289 289 288 288 288 288 288 287 287 287 287 286 286 286 285 285 284 284 284 283 283 283 282 282 282 281 281 281 281 281 281
286 286 286 287 287 288 289 289 288 289 289 289 290 289 290 290 290 289 289 289 289 289 289 289 289 289 290 290 289 289 289 288 288 288 288 288 287 287 287 286 286 286 286 286 285 285 284 284 283 283 283 282 282 282 282 281 281 280 281 281 280 280
285 285 286 286 286 286 286 288 288 288 288 289 289 289 289 289 290 289 289 289 289 289 289 289 288 288 288 288 289 288 289 288 288 288 287 287 287 287 287 286 286 286 286 286 285 285 284 284 283 283 282 282 282 281 282 281 280 280 281 280 279 279
284 284 284 285 285 285 286 286 287 287 287 287 288 288 288 289 289 290 289 289 288 288 288 288 288 288 288 288 288 288 288 288 288 287 287 287 286 286 286 286 286 286 286 285 285 285 284 284 283 283 282 282 282 281 281 281 280 280 280 280 279 279
283 284 284 284 284 285 285 286 286 286 286 286 287 287 288 288 289 289 289 289 288 288 287 287 288 287 287 287 288 288 288 288 288 287 287 287 287 286 286 286 286 285 285 285 285 284 284 284 283 283 282 282 282 282 281 281 280 280 281 280 280 280
282 282 283 283 284 284 285 285 285 285 285 285 286 286 287 288 288 288 288 289 288 288 287 287 287 287 287 287 288 288 288 288 288 288 287 287 286 286 286 285 286 285 285 284 284 284 284 284 283 283 282 282 282 282 282 281 281 280 281 281 280 281
282 282 282 283 283 283 284 285 285 285 285 284 285 285 286 287 287 287 288 288 288 288 288 287 287 287 287 287 287 288 288 288 288 288 287 287 286 286 285 285 285 285 285 285 285 285 284 284 284 283 282 282 282 282 282 282 281 281 281 281 281 280
282 282 282 283 283 283 283 284 284 284 284 284 284 285 285 286 286 286 286 287 287 287 287 287 287 287 287 287 287 287 287 287 287 287 287 287 286 286 285 285 285 285 285 285 285 284 284 284 284 283 283 282 282 282 281 281 281 280 280 281 281 280
282 282 282 283 283 283 283 284 284 284 284 283 284 284 285 285 285 285 285 285 286 286 286 286 287 287 287 287 287 287 287 287 287 287 287 287 286 286 286 285 285 285 285 285 285 285 285 284 284 283 283 283 282 282 281 281 281 280 280 280 280 280
281 282 282 283 283 283 284 284 284 284 284 284 283 284 284 285 284 284 284 284 284 285 285 286 286 287 286 286 286 286 286 287 286 286 287 286 286 286 286 286 285 284 284 285 284 284 284 284 284 283 283 282 282 282 281 281 281 280 280 280 280 280
282 282 282 282 283 283 284 284 284 284 284 284 284 283 284 284 284 284 284 284 284 284 285 285 285 285 285 286 286 286 286 286 286 286 286 286 286 286 286 285 285 285 284 284 284 284 284 284 284 284 285 285 282 281 281 281 281 281 280 280 280 279
282 281 281 281 282 283 283 284 284 284 284 284 284 284 284 284 283 283 283 283 283 284 284 284 284 284 284 285 285 285 285 286 286 286 285 285 285 285 285 284 284 284 284 284 284 283 283 284 284 285 286 286 286 283 282 281 281 281 280 280 279 279
281 281 281 281 282 282 283 284 284 284 284 284 284 284 284 284 284 283 283 283 283 283 283 283 283 283 283 284 284 284 284 284 284 285 285 285 285 284 284 284 284 284 284 284 283 283 283 283 285 286 287 287 287 285 282 282 281 280 280 280 279 279
281 281 281 282 282 283 283 284 283 283 284 284 284 284 284 283 283 283 283 283 283 283 283 283 282 282 282 283 283 283 283 283 283 284 284 284 285 284 284 284 284 284 284 283 283 283 284 283 286 287 287 287 287 287 284 281 281 280 280 280 279 279
282 282 282 282 283 283 283 284 283 283 284 284 284 283 283 283 283 283 283 283 283 282 282 282 281 281 281 282 282 282 282 282 282 283 283 283 284 284 284 284 283 283 283 283 283 283 283 283 285 287 287 287 287 288 286 282 281 280 280 279 279 279
282 281 281 282 282 283 283 283 283 283 283 283 283 283 282 283 282 282 282 282 282 282 282 282 282 281 281 281 281 281 281 281 281 282 283 283 283 283 283 283 283 283 283 283 283 283 283 283 285 286 287 287 287 288 287 283 281 280 280 279 279 278
282 281 281 282 282 282 283 283 283 282 282 283 282 282 281 282 282 282 282 282 282 282 282 282 282 282 281 281 281 280 281 281 281 281 281 282 282 282 282 282 282 282 282 283 282 282 282 283 285 286 286 287 287 288 286 283 281 280 279 279 278 278
282 282 282 281 281 281 281 282 282 282 282 281 281 281 281 281 281 281 281 281 282 282 282 282 282 281 281 282 281 281 281 281 280 281 281 280 281 281 281 281 282 282 282 282 282 281 281 282 284 286 286 287 287 287 285 284 281 280 279 278 278 277
282 281 281 280 280 281 281 281 280 280 280 280 280 280 279 280 279 280 281 281 281 281 281 282 282 281 281 281 281 281 281 281 281 281 281 280 280 280 280 280 279 279 279 280 280 281 281 281 282 285 286 286 287 286 284 283 281 279 278 278 277 277
281 281 280 280 279 280 280 279 278 278 278 279 279 279 278 278 279 279 279 280 281 281 281 281 282 282 281 281 281 281 281 281 281 281 280 280 279 279 280 279 278 278 278 278 279 281 280 280 281 283 285 286 287 286 284 283 281 279 278 277 276 276
279 278 279 279 279 280 279 279 278 277 278 278 278 277 277 278 278 279 279 280 279 280 280 281 281 281 281 281 281 281 281 281 280 280 280 280 279 278 278 278 278 277 277 277 277 278 279 279 279 281 284 285 286 287 285 283 280 278 277 277 276 275
278 278 278 278 278 278 278 278 278 278 278 277 277 276 277 277 278 278 278 278 278 278 278 280 280 280 280 280 281 281 280 280 280 280 279 278 278 278 277 277 277 277 277 277 277 277 277 278 278 279 282 284 285 286 286 282 280 279 278 276 275 275
276 276 276 277 277 277 277 276 276 276 276 276 275 276 277 277 277 277 277 276 276 276 277 277 278 279 279 280 280 279 279 280 280 279 278 278 277 277 277 277 276 276 276 276 276 276 276 278 279 278 281 283 285 286 287 283 280 279 278 276 275 275
274 274 275 275 275 275 276 275 274 275 275 274 275 276 276 276 276 276 275 275 275 275 275 276 276 277 278 278 279 278 278 278 278 278 277 276 276 276 276 276 276 276 275 275 275 275 275 276 277 280 279 281 284 285 286 285 282 282 278 276 275 275
273 273 273 274 274 274 274 273 273 273 273 273 275 275 275 274 274 274 274 274 273 274 274 274 275 275 276 276 276 276 275 276 277 278 277 277 276 276 275 276 276 275 275 275 275 275 275 275 276 278 280 280 282 284 286 286 284 283 279 277 276 276
271 272 272 272 272 272 272 272 271 271 271 273 274 273 273 273 273 272 272 272 272 272 272 273 273 273 273 273 273 273 274 274 276 276 277 276 275 275 275 275 275 275 274 275 274 275 275 275 275 275 278 280 281 283 285 286 285 283 282 277 276 276
270 269 269 270 271 271 271 271 271 269 271 272 272 272 271 271 270 270 270 270 270 270 271 270 270 270 270 271 271 272 273 273 274 275 276 276 275 275 275 275 275 275 274 274 274 274 275 274 274 274 275 277 279 281 283 284 285 284 282 280 277 278
268 268 268 268 269 270 270 270 270 270 271 270 271 270 269 268 268 268 268 268 268 268 268 268 268 268 269 269 270 270 272 273 274 275 275 276 275 275 275 275 275 275 275 274 275 275 275 274 273 273 274 275 276 278 280 282 283 284 282 279 277 278
266 266 267 267 268 269 269 268 268 269 269 269 269 268 266 266 266 266 265 265 266 266 266 266 267 267 267 267 268 269 270 271 273 274 274 275 275 275 275 275 275 275 275 275 275 275 274 273 273 273 273 274 275 276 278 280 281 281 280 277 276 276
265 265 265 266 267 267 266 266 266 267 266 266 266 265 264 263 264 264 263 263 264 263 265 265 265 265 266 266 267 268 269 270 271 273 274 276 277 276 276 275 276 276 276 276 276 275 274 273 273 273 276 275 277 276 277 278 280 280 279 277 278 275
264 263 263 263 264 263 263 263 263 263 264 263 263 262 261 261 261 261 261 261 262 262 263 263 264 264 265 265 266 267 268 271 274 274 273 273 277 279 281 280 277 277 278 277 277 277 276 275 276 278 278 278 279 280 280 280 282 282 279 279 280 277
261 260 260 260 261 260 260 260 260 260 260 260 260 260 259 259 259 259 259 260 260 261 262 262 262 263 263 264 264 265 265 266 268 273 275 275 276 277 280 281 282 282 282 280 277 278 281 281 280 279 279 279 280 280 281 281 282 283 281 280 277 275
258 258 258 258 258 258 258 257 258 258 258 259 258 259 258 258 258 257 258 258 259 260 260 260 261 261 261 262 263 263 263 264 264 265 270 273 274 276 278 280 282 282 282 283 282 280 278 280 281 281 280 280 280 280 281 281 282 283 281 281 280 273
257 257 257 257 257 256 256 256 257 257 258 258 258 258 257 257 257 257 257 257 258 259 259 259 259 260 260 260 261 261 262 262 263 263 264 268 273 275 277 279 280 281 282 283 283 283 282 280 280 281 281 280 280 281 281 281 282 283 282 281 277 273
256 256 256 256 256 256 256 256 257 257 257 258 258 257 257 257 257 257 257 257 258 258 258 259 259 259 260 260 260 261 261 261 261 261 262 262 263 266 270 275 278 280 281 282 283 283 283 283 282 281 281 281 280 281 281 281 280 283 282 280 275 273
256 255 256 256 256 256 256 255 256 257 257 257 257 257 256 257 257 257 258 259 259 258 259 259 260 260 260 261 261 261 262 262 263 264 264 264 264 265 266 268 271 276 279 279 280 282 283 283 283 281 281 281 281 281 281 282 279 278 278 278 276 274
255 255 255 255 255 255 255 255 257 257 257 257 257 257 256 257 257 257 257 258 258 258 259 259 259 260 260 260 261 261 262 263 264 264 265 266 267 268 268 269 271 272 276 279 280 281 282 282 283 282 281 281 281 281 281 277 276 277 277 276 275 273